| time (UTC) | temp C | wind direction | speed KPH | gust KPH | rain 1hr cm | rain 24hr cm | rain mn cm | humidity % | barometer mb |
| 20260506162733 | 17 | 131 | 0.0 | 4.8 | 0.08 | 0.08 | 0.10 | 91 | 1008.2 |
| 20260506162632 | 17 | 132 | 0.0 | 4.8 | 0.08 | 0.08 | 0.08 | 91 | 1008.1 |
| 20260506162530 | 17 | 132 | 0.0 | 4.8 | 0.08 | 0.08 | 0.08 | 91 | 1008.3 |
| 20260506162430 | 17 | 132 | 0.0 | 4.8 | 0.08 | 0.08 | 0.08 | 90 | 1008.3 |
| 20260506162344 | 17 | 132 | 0.0 | 4.8 | 0.08 | 0.08 | 0.08 | 90 | 1008.3 |
| 20260506162128 | 17 | 187 | 0.0 | 4.8 | 0.08 | 0.08 | 0.08 | 90 | 1008.4 |
| 20260506162028 | 17 | 195 | 0.0 | 4.8 | 0.08 | 0.08 | 0.08 | 90 | 1008.4 |
| 20260506161928 | 17 | 130 | 0.0 | 4.8 | 0.08 | 0.08 | 0.08 | 90 | 1008.4 |
| 20260506161828 | 17 | 150 | 0.0 | 4.8 | 0.05 | 0.05 | 0.08 | 90 | 1008.4 |
| 20260506161726 | 17 | 150 | 0.0 | 4.8 | 0.05 | 0.05 | 0.05 | 90 | 1008.4 |
| 20260506161710 | 17 | 158 | 0.0 | 4.8 | 0.05 | 0.05 | 0.05 | 90 | 1008.5 |
| 20260506161223 | 17 | 135 | 0.0 | 3.2 | 0.05 | 0.05 | 0.05 | 89 | 1008.5 |
| 20260506161122 | 17 | 135 | 0.0 | 3.2 | 0.05 | 0.05 | 0.05 | 89 | 1008.6 |
| 20260506161035 | 17 | 135 | 0.0 | 3.2 | 0.05 | 0.05 | 0.05 | 89 | 1008.5 |
| 20260506160817 | 17 | 139 | 0.0 | 3.2 | 0.05 | 0.05 | 0.05 | 88 | 1008.6 |
| 20260506160720 | 17 | 127 | 0.0 | 3.2 | 0.05 | 0.05 | 0.05 | 89 | 1008.6 |
| 20260506160619 | 17 | 127 | 0.0 | 3.2 | 0.03 | 0.03 | 0.05 | 88 | 1008.6 |
| 20260506160518 | 17 | 127 | 0.0 | 3.2 | 0.03 | 0.03 | 0.03 | 88 | 1008.6 |
| 20260506160415 | 17 | 127 | 0.0 | 3.2 | 0.03 | 0.03 | 0.03 | 88 | 1008.6 |
| 20260506160317 | 17 | 127 | 0.0 | 3.2 | 0.03 | 0.03 | 0.03 | 87 | 1008.6 |
| 20260506160230 | 17 | 127 | 0.0 | 3.2 | 0.03 | 0.03 | 0.03 | 87 | 1008.6 |
| 20260506160014 | 17 | 127 | 0.0 | 3.2 | 0.03 | 0.03 | 0.03 | 87 | 1008.7 |
| 20260506155913 | 17 | 247 | 0.0 | 3.2 | 0.03 | 0.03 | 0.03 | 87 | 1008.7 |
| 20260506155812 | 17 | 247 | 0.0 | 3.2 | 0.03 | 0.03 | 0.03 | 87 | 1008.7 |
| 20260506155724 | 17 | 247 | 0.0 | 3.2 | 0.03 | 0.03 | 0.03 | 87 | 1008.7 |
| 20260506155511 | 17 | 247 | 0.0 | 4.8 | 0.00 | 0.00 | 0.00 | 86 | 1008.7 |
| 20260506155408 | 17 | 247 | 0.0 | 4.8 | 0.00 | 0.00 | 0.00 | 86 | 1008.7 |
| 20260506155306 | 17 | 247 | 0.0 | 4.8 | 0.00 | 0.00 | 0.00 | 86 | 1008.7 |
| 20260506155206 | 17 | 247 | 0.0 | 4.8 | 0.00 | 0.00 | 0.00 | 86 | 1008.7 |
| 20260506155105 | 18 | 170 | 0.0 | 4.8 | 0.00 | 0.00 | 0.00 | 86 | 1008.8 |
| 20260506155005 | 18 | 115 | 0.0 | 11.3 | 0.00 | 0.00 | 0.00 | 86 | 1008.8 |
| 20260506154919 | 18 | 115 | 0.0 | 11.3 | 0.00 | 0.00 | 0.00 | 85 | 1008.9 |
| 20260506154703 | 18 | 156 | 0.0 | 11.3 | 0.00 | 0.00 | 0.00 | 85 | 1008.9 |
| 20260506154616 | 18 | 157 | 0.0 | 11.3 | 0.00 | 0.00 | 0.00 | 85 | 1008.9 |
| 20260506154359 | 18 | 146 | 0.0 | 11.3 | 0.00 | 0.00 | 0.00 | 85 | 1008.9 |
| 20260506154327 | 18 | 146 | 0.0 | 11.3 | 0.00 | 0.00 | 0.00 | 85 | 1008.8 |
| 20260506153955 | 18 | 128 | 0.0 | 1.6 | 0.00 | 0.00 | 0.00 | 85 | 1008.8 |
| 20260506153856 | 18 | 128 | 0.0 | 1.6 | 0.00 | 0.00 | 0.00 | 85 | 1008.8 |
| 20260506153756 | 18 | 128 | 0.0 | 1.6 | 0.00 | 0.00 | 0.00 | 84 | 1008.8 |
| 20260506153655 | 18 | 128 | 0.0 | 3.2 | 0.00 | 0.00 | 0.00 | 84 | 1008.7 |
| 20260506153555 | 18 | 128 | 0.0 | 3.2 | 0.00 | 0.00 | 0.00 | 84 | 1008.7 |
| 20260506153453 | 18 | 128 | 0.0 | 3.2 | 0.00 | 0.00 | 0.00 | 84 | 1008.6 |
| 20260506153352 | 18 | 128 | 0.0 | 3.2 | 0.00 | 0.00 | 0.00 | 84 | 1008.6 |
| 20260506153307 | 18 | 128 | 0.0 | 3.2 | 0.00 | 0.00 | 0.00 | 83 | 1008.6 |
| 20260506153051 | 18 | 128 | 0.0 | 3.2 | 0.00 | 0.00 | 0.00 | 83 | 1008.5 |
| 20260506152951 | 18 | 128 | 0.0 | 3.2 | 0.00 | 0.00 | 0.00 | 83 | 1008.6 |
| 20260506152904 | 18 | 128 | 0.0 | 3.2 | 0.00 | 0.00 | 0.00 | 83 | 1008.5 |
| 20260506152650 | 18 | 194 | 0.0 | 3.2 | 0.00 | 0.00 | 0.00 | 83 | 1008.4 |
| 20260506152551 | 18 | 194 | 0.0 | 3.2 | 0.00 | 0.00 | 0.00 | 83 | 1008.5 |
| 20260506152450 | 18 | 194 | 0.0 | 3.2 | 0.00 | 0.00 | 0.00 | 82 | 1008.4 |
| 20260506152352 | 18 | 194 | 0.0 | 3.2 | 0.00 | 0.00 | 0.00 | 82 | 1008.5 |
| 20260506152247 | 18 | 178 | 0.0 | 3.2 | 0.00 | 0.00 | 0.00 | 83 | 1008.5 |
| 20260506152148 | 18 | 178 | 0.0 | 3.2 | 0.00 | 0.00 | 0.00 | 83 | 1008.5 |
| 20260506152047 | 18 | 182 | 0.0 | 3.2 | 0.00 | 0.00 | 0.00 | 83 | 1008.6 |
| 20260506151946 | 18 | 182 | 0.0 | 6.4 | 0.00 | 0.00 | 0.00 | 82 | 1008.6 |
| 20260506151843 | 18 | 182 | 0.0 | 6.4 | 0.00 | 0.00 | 0.00 | 82 | 1008.6 |
| 20260506151745 | 18 | 181 | 0.0 | 6.4 | 0.00 | 0.00 | 0.00 | 81 | 1008.6 |
| 20260506151644 | 18 | 181 | 0.0 | 6.4 | 0.00 | 0.00 | 0.00 | 81 | 1008.6 |
| 20260506151557 | 18 | 181 | 0.0 | 6.4 | 0.00 | 0.00 | 0.00 | 81 | 1008.6 |
| 20260506151343 | 18 | 181 | 0.0 | 6.4 | 0.00 | 0.00 | 0.00 | 80 | 1008.6 |
| 20260506151240 | 18 | 182 | 0.0 | 6.4 | 0.00 | 0.00 | 0.00 | 80 | 1008.6 |
| 20260506151140 | 18 | 264 | 0.0 | 6.4 | 0.00 | 0.00 | 0.00 | 80 | 1008.6 |
| 20260506151041 | 19 | 280 | 0.0 | 6.4 | 0.00 | 0.00 | 0.00 | 81 | 1008.6 |
| 20260506150937 | 19 | 117 | 0.0 | 6.4 | 0.00 | 0.00 | 0.00 | 80 | 1008.7 |
| 20260506150838 | 19 | 191 | 0.0 | 6.4 | 0.00 | 0.00 | 0.00 | 80 | 1008.7 |
| 20260506150736 | 19 | 191 | 0.0 | 6.4 | 0.00 | 0.00 | 0.00 | 80 | 1008.6 |
| 20260506150636 | 19 | 191 | 0.0 | 6.4 | 0.00 | 0.00 | 0.00 | 79 | 1008.6 |
| 20260506150535 | 19 | 191 | 1.6 | 6.4 | 0.00 | 0.00 | 0.00 | 78 | 1008.6 |
| 20260506150434 | 19 | 208 | 1.6 | 6.4 | 0.00 | 0.00 | 0.00 | 78 | 1008.7 |
| 20260506150334 | 19 | 208 | 1.6 | 6.4 | 0.00 | 0.00 | 0.00 | 78 | 1008.8 |
| 20260506150305 | 19 | 220 | 1.6 | 6.4 | 0.00 | 0.00 | 0.00 | 77 | 1008.8 |
| 20260506145930 | 19 | 170 | 1.6 | 6.4 | 0.00 | 0.00 | 0.00 | 76 | 1008.9 |
| 20260506145830 | 19 | 172 | 1.6 | 6.4 | 0.00 | 0.00 | 0.00 | 76 | 1008.9 |
| 20260506145746 | 19 | 138 | 1.6 | 6.4 | 0.00 | 0.00 | 0.00 | 76 | 1008.9 |
| 20260506145527 | 19 | 137 | 1.6 | 6.4 | 0.00 | 0.00 | 0.00 | 76 | 1008.9 |
| 20260506145425 | 19 | 227 | 1.6 | 6.4 | 0.00 | 0.00 | 0.00 | 76 | 1008.9 |
| 20260506145323 | 19 | 144 | 1.6 | 6.4 | 0.00 | 0.00 | 0.00 | 76 | 1008.8 |
| 20260506145224 | 19 | 167 | 1.6 | 6.4 | 0.00 | 0.00 | 0.00 | 76 | 1008.9 |
| 20260506145125 | 19 | 175 | 1.6 | 6.4 | 0.00 | 0.00 | 0.00 | 76 | 1008.9 |
| 20260506145023 | 19 | 175 | 1.6 | 6.4 | 0.00 | 0.00 | 0.00 | 76 | 1008.8 |
| 20260506144922 | 19 | 123 | 1.6 | 6.4 | 0.00 | 0.00 | 0.00 | 76 | 1008.8 |
| 20260506144822 | 19 | 132 | 1.6 | 6.4 | 0.00 | 0.00 | 0.00 | 76 | 1008.8 |
| 20260506144721 | 19 | 115 | 1.6 | 6.4 | 0.00 | 0.00 | 0.00 | 76 | 1008.8 |
| 20260506144619 | 19 | 201 | 1.6 | 6.4 | 0.00 | 0.00 | 0.00 | 76 | 1008.8 |
| 20260506144521 | 19 | 211 | 1.6 | 6.4 | 0.00 | 0.00 | 0.00 | 76 | 1008.9 |
| 20260506144419 | 19 | 211 | 1.6 | 8.0 | 0.00 | 0.00 | 0.00 | 76 | 1008.8 |
| 20260506144318 | 19 | 211 | 1.6 | 8.0 | 0.00 | 0.00 | 0.00 | 75 | 1008.8 |
| 20260506144217 | 19 | 211 | 1.6 | 8.0 | 0.00 | 0.00 | 0.00 | 75 | 1008.8 |
| 20260506144132 | 19 | 211 | 1.6 | 8.0 | 0.00 | 0.00 | 0.00 | 75 | 1008.8 |
| 20260506143913 | 19 | 203 | 1.6 | 8.0 | 0.00 | 0.00 | 0.00 | 75 | 1008.7 |
| 20260506143814 | 19 | 193 | 1.6 | 8.0 | 0.00 | 0.00 | 0.00 | 75 | 1008.7 |
| 20260506143745 | 19 | 196 | 1.6 | 8.0 | 0.00 | 0.00 | 0.00 | 75 | 1008.7 |
| 20260506143409 | 19 | 130 | 1.6 | 6.4 | 0.00 | 0.00 | 0.00 | 75 | 1008.8 |
| 20260506143310 | 19 | 209 | 1.6 | 6.4 | 0.00 | 0.00 | 0.00 | 75 | 1008.9 |
| 20260506143209 | 19 | 208 | 1.6 | 6.4 | 0.00 | 0.00 | 0.00 | 75 | 1008.9 |
| 20260506143109 | 19 | 188 | 1.6 | 6.4 | 0.00 | 0.00 | 0.00 | 75 | 1008.9 |
| 20260506143008 | 19 | 183 | 1.6 | 6.4 | 0.00 | 0.00 | 0.00 | 75 | 1008.8 |
| 20260506142906 | 19 | 196 | 1.6 | 6.4 | 0.00 | 0.00 | 0.00 | 75 | 1008.8 |
| 20260506142806 | 19 | 222 | 1.6 | 8.0 | 0.00 | 0.00 | 0.00 | 75 | 1008.9 |
| 20260506142706 | 19 | 222 | 1.6 | 8.0 | 0.00 | 0.00 | 0.00 | 75 | 1008.8 |
| 20260506142606 | 19 | 221 | 1.6 | 8.0 | 0.00 | 0.00 | 0.00 | 75 | 1008.7 |
| 20260506142505 | 19 | 207 | 1.6 | 9.7 | 0.00 | 0.00 | 0.00 | 76 | 1008.8 |
| 20260506142407 | 19 | 199 | 1.6 | 9.7 | 0.00 | 0.00 | 0.00 | 76 | 1008.8 |
| 20260506142306 | 19 | 235 | 1.6 | 9.7 | 0.00 | 0.00 | 0.00 | 75 | 1008.8 |
| 20260506142205 | 19 | 235 | 1.6 | 9.7 | 0.00 | 0.00 | 0.00 | 75 | 1008.7 |
| 20260506142126 | 19 | 234 | 3.2 | 9.7 | 0.00 | 0.00 | 0.00 | 75 | 1008.8 |
| 20260506142110 | 19 | 233 | 3.2 | 9.7 | 0.00 | 0.00 | 0.00 | 75 | 1008.7 |
| 20260506141507 | 19 | 144 | 3.2 | 11.3 | 0.00 | 0.00 | 0.00 | 75 | 1008.6 |
| 20260506141407 | 19 | 143 | 3.2 | 11.3 | 0.00 | 0.00 | 0.00 | 75 | 1008.7 |
| 20260506141306 | 19 | 138 | 3.2 | 11.3 | 0.00 | 0.00 | 0.00 | 75 | 1008.7 |
| 20260506141221 | 19 | 227 | 3.2 | 11.3 | 0.00 | 0.00 | 0.00 | 75 | 1008.7 |
| 20260506141004 | 19 | 169 | 3.2 | 11.3 | 0.00 | 0.00 | 0.00 | 75 | 1008.7 |
| 20260506140919 | 19 | 108 | 1.6 | 11.3 | 0.00 | 0.00 | 0.00 | 75 | 1008.7 |
| 20260506140720 | 19 | 106 | 1.6 | 9.7 | 0.00 | 0.00 | 0.00 | 75 | 1008.6 |
| 20260506140504 | 19 | 173 | 1.6 | 6.4 | 0.00 | 0.00 | 0.00 | 76 | 1008.7 |
| 20260506140403 | 19 | 210 | 1.6 | 11.3 | 0.00 | 0.00 | 0.00 | 76 | 1008.7 |
| 20260506140304 | 19 | 173 | 1.6 | 11.3 | 0.00 | 0.00 | 0.00 | 76 | 1008.7 |
| 20260506140204 | 19 | 173 | 1.6 | 11.3 | 0.00 | 0.00 | 0.00 | 76 | 1008.8 |
| 20260506140136 | 19 | 129 | 1.6 | 11.3 | 0.00 | 0.00 | 0.00 | 75 | 1008.7 |
| 20260506135802 | 19 | 159 | 1.6 | 11.3 | 0.00 | 0.00 | 0.00 | 75 | 1008.6 |
| 20260506135702 | 19 | 175 | 1.6 | 11.3 | 0.00 | 0.00 | 0.00 | 75 | 1008.7 |
| 20260506135601 | 19 | 153 | 1.6 | 11.3 | 0.00 | 0.00 | 0.00 | 75 | 1008.6 |
| 20260506135502 | 19 | 125 | 1.6 | 11.3 | 0.00 | 0.00 | 0.00 | 75 | 1008.6 |
| 20260506135404 | 19 | 189 | 1.6 | 6.4 | 0.00 | 0.00 | 0.00 | 75 | 1008.7 |
| 20260506135305 | 19 | 128 | 1.6 | 6.4 | 0.00 | 0.00 | 0.00 | 75 | 1008.6 |
| 20260506135219 | 19 | 211 | 1.6 | 6.4 | 0.00 | 0.00 | 0.00 | 75 | 1008.8 |
| 20260506135001 | 19 | 167 | 1.6 | 6.4 | 0.00 | 0.00 | 0.00 | 75 | 1008.8 |
| 20260506134904 | 19 | 253 | 1.6 | 6.4 | 0.00 | 0.00 | 0.00 | 76 | 1008.8 |
| 20260506134817 | 19 | 253 | 1.6 | 6.4 | 0.00 | 0.00 | 0.00 | 75 | 1008.8 |
| 20260506134601 | 19 | 269 | 1.6 | 6.4 | 0.00 | 0.00 | 0.00 | 75 | 1008.8 |
| 20260506134502 | 19 | 269 | 1.6 | 6.4 | 0.00 | 0.00 | 0.00 | 75 | 1008.9 |
| 20260506134357 | 19 | 212 | 1.6 | 6.4 | 0.00 | 0.00 | 0.00 | 75 | 1008.9 |
| 20260506134257 | 19 | 180 | 1.6 | 4.8 | 0.00 | 0.00 | 0.00 | 75 | 1008.9 |
| 20260506134212 | 19 | 139 | 1.6 | 11.3 | 0.00 | 0.00 | 0.00 | 75 | 1008.9 |
| 20260506133953 | 19 | 130 | 1.6 | 11.3 | 0.00 | 0.00 | 0.00 | 75 | 1008.9 |
| 20260506133853 | 19 | 145 | 1.6 | 11.3 | 0.00 | 0.00 | 0.00 | 75 | 1009.0 |
| 20260506133754 | 19 | 148 | 1.6 | 11.3 | 0.00 | 0.00 | 0.00 | 76 | 1009.0 |
| 20260506133653 | 19 | 140 | 1.6 | 11.3 | 0.00 | 0.00 | 0.00 | 76 | 1008.9 |
| 20260506133551 | 19 | 140 | 1.6 | 11.3 | 0.00 | 0.00 | 0.00 | 76 | 1008.9 |
| 20260506133507 | 19 | 153 | 1.6 | 11.3 | 0.00 | 0.00 | 0.00 | 76 | 1008.9 |
| 20260506133250 | 19 | 150 | 1.6 | 11.3 | 0.00 | 0.00 | 0.00 | 76 | 1009.0 |
| 20260506133150 | 19 | 136 | 1.6 | 9.7 | 0.00 | 0.00 | 0.00 | 76 | 1009.0 |
| 20260506133047 | 19 | 130 | 1.6 | 9.7 | 0.00 | 0.00 | 0.00 | 75 | 1008.9 |
| 20260506133000 | 19 | 244 | 3.2 | 11.3 | 0.00 | 0.00 | 0.00 | 75 | 1009.0 |
| 20260506132748 | 19 | 175 | 1.6 | 11.3 | 0.00 | 0.00 | 0.00 | 75 | 1009.0 |
| 20260506132648 | 19 | 211 | 1.6 | 11.3 | 0.00 | 0.00 | 0.00 | 75 | 1009.0 |
| 20260506132600 | 19 | 230 | 1.6 | 11.3 | 0.00 | 0.00 | 0.00 | 76 | 1009.1 |
| 20260506132347 | 19 | 232 | 1.6 | 11.3 | 0.00 | 0.00 | 0.00 | 76 | 1009.1 |
| 20260506132246 | 19 | 180 | 1.6 | 11.3 | 0.00 | 0.00 | 0.00 | 76 | 1009.1 |
| 20260506132202 | 19 | 202 | 1.6 | 11.3 | 0.00 | 0.00 | 0.00 | 76 | 1009.1 |
| 20260506131946 | 19 | 234 | 1.6 | 8.0 | 0.00 | 0.00 | 0.00 | 76 | 1008.9 |
| 20260506131843 | 19 | 121 | 1.6 | 6.4 | 0.00 | 0.00 | 0.00 | 77 | 1008.9 |
| 20260506131759 | 19 | 133 | 1.6 | 6.4 | 0.00 | 0.00 | 0.00 | 77 | 1008.9 |
| 20260506131542 | 19 | 102 | 1.6 | 6.4 | 0.00 | 0.00 | 0.00 | 77 | 1008.9 |
| 20260506131441 | 18 | 169 | 1.6 | 6.4 | 0.00 | 0.00 | 0.00 | 77 | 1008.9 |
| 20260506131339 | 18 | 161 | 1.6 | 6.4 | 0.00 | 0.00 | 0.00 | 77 | 1008.8 |
| 20260506131240 | 18 | 183 | 1.6 | 6.4 | 0.00 | 0.00 | 0.00 | 77 | 1008.9 |
| 20260506131138 | 18 | 208 | 1.6 | 6.4 | 0.00 | 0.00 | 0.00 | 77 | 1008.9 |
| 20260506131038 | 18 | 206 | 1.6 | 6.4 | 0.00 | 0.00 | 0.00 | 77 | 1009.0 |
| 20260506130938 | 18 | 217 | 1.6 | 6.4 | 0.00 | 0.00 | 0.00 | 77 | 1009.1 |
| 20260506130835 | 18 | 175 | 1.6 | 6.4 | 0.00 | 0.00 | 0.00 | 77 | 1009.1 |
| 20260506130735 | 18 | 175 | 1.6 | 6.4 | 0.00 | 0.00 | 0.00 | 77 | 1009.1 |
| 20260506130651 | 18 | 175 | 1.6 | 6.4 | 0.00 | 0.00 | 0.00 | 77 | 1009.1 |
| 20260506130434 | 18 | 169 | 1.6 | 6.4 | 0.00 | 0.00 | 0.00 | 78 | 1009.1 |
| 20260506130330 | 18 | 202 | 1.6 | 4.8 | 0.00 | 0.00 | 0.00 | 78 | 1009.1 |
| 20260506130232 | 18 | 201 | 1.6 | 4.8 | 0.00 | 0.00 | 0.00 | 78 | 1009.0 |
| 20260506130130 | 18 | 201 | 1.6 | 4.8 | 0.00 | 0.00 | 0.00 | 78 | 1009.0 |
| 20260506130030 | 18 | 200 | 1.6 | 4.8 | 0.00 | 0.00 | 0.00 | 78 | 1009.0 |
| 20260506125930 | 18 | 200 | 1.6 | 4.8 | 0.00 | 0.00 | 0.00 | 78 | 1009.0 |
| 20260506125827 | 18 | 200 | 1.6 | 4.8 | 0.00 | 0.00 | 0.00 | 78 | 1009.0 |
| 20260506125744 | 18 | 200 | 1.6 | 4.8 | 0.00 | 0.00 | 0.00 | 78 | 1009.0 |
| 20260506125526 | 18 | 116 | 1.6 | 4.8 | 0.00 | 0.00 | 0.00 | 78 | 1008.9 |
| 20260506125426 | 18 | 116 | 1.6 | 4.8 | 0.00 | 0.00 | 0.00 | 78 | 1008.9 |
| 20260506125323 | 18 | 111 | 1.6 | 6.4 | 0.00 | 0.00 | 0.00 | 78 | 1008.9 |
| 20260506125221 | 18 | 137 | 1.6 | 6.4 | 0.00 | 0.00 | 0.00 | 78 | 1008.8 |
| 20260506125119 | 18 | 136 | 0.0 | 6.4 | 0.00 | 0.00 | 0.00 | 78 | 1008.8 |
| 20260506125019 | 18 | 125 | 0.0 | 6.4 | 0.00 | 0.00 | 0.00 | 78 | 1008.8 |
| 20260506124933 | 18 | 123 | 0.0 | 6.4 | 0.00 | 0.00 | 0.00 | 78 | 1008.9 |
| 20260506124717 | 18 | 213 | 0.0 | 6.4 | 0.00 | 0.00 | 0.00 | 78 | 1008.8 |
| 20260506124616 | 18 | 255 | 0.0 | 6.4 | 0.00 | 0.00 | 0.00 | 78 | 1008.8 |
| 20260506124516 | 18 | 255 | 0.0 | 6.4 | 0.00 | 0.00 | 0.00 | 78 | 1008.7 |
| 20260506124417 | 18 | 255 | 1.6 | 6.4 | 0.00 | 0.00 | 0.00 | 78 | 1008.7 |
| 20260506124315 | 18 | 138 | 1.6 | 8.0 | 0.00 | 0.00 | 0.00 | 78 | 1008.7 |
| 20260506124215 | 18 | 138 | 1.6 | 8.0 | 0.00 | 0.00 | 0.00 | 78 | 1008.7 |
| 20260506124114 | 18 | 130 | 1.6 | 8.0 | 0.00 | 0.00 | 0.00 | 78 | 1008.6 |
| 20260506124013 | 18 | 112 | 1.6 | 8.0 | 0.00 | 0.00 | 0.00 | 78 | 1008.6 |
| 20260506123929 | 18 | 177 | 1.6 | 8.0 | 0.00 | 0.00 | 0.00 | 78 | 1008.6 |
| 20260506123728 | 18 | 148 | 1.6 | 8.0 | 0.00 | 0.00 | 0.00 | 78 | 1008.6 |
| 20260506123513 | 18 | 186 | 1.6 | 8.0 | 0.00 | 0.00 | 0.00 | 79 | 1008.6 |
| 20260506123412 | 18 | 150 | 0.0 | 8.0 | 0.00 | 0.00 | 0.00 | 79 | 1008.6 |
| 20260506123312 | 18 | 205 | 0.0 | 6.4 | 0.00 | 0.00 | 0.00 | 79 | 1008.6 |
| 20260506123212 | 18 | 205 | 0.0 | 6.4 | 0.00 | 0.00 | 0.00 | 79 | 1008.6 |
| 20260506123110 | 18 | 205 | 0.0 | 6.4 | 0.00 | 0.00 | 0.00 | 79 | 1008.6 |
| 20260506123009 | 18 | 219 | 1.6 | 11.3 | 0.00 | 0.00 | 0.00 | 79 | 1008.7 |
| 20260506122907 | 18 | 219 | 1.6 | 11.3 | 0.00 | 0.00 | 0.00 | 79 | 1008.7 |
| 20260506122808 | 18 | 101 | 0.0 | 11.3 | 0.00 | 0.00 | 0.00 | 79 | 1008.7 |
| 20260506122706 | 18 | 123 | 0.0 | 11.3 | 0.00 | 0.00 | 0.00 | 79 | 1008.7 |
| 20260506122606 | 18 | 238 | 1.6 | 11.3 | 0.00 | 0.00 | 0.00 | 79 | 1008.7 |
| 20260506122504 | 18 | 238 | 1.6 | 11.3 | 0.00 | 0.00 | 0.00 | 79 | 1008.7 |
| 20260506122404 | 18 | 238 | 1.6 | 11.3 | 0.00 | 0.00 | 0.00 | 80 | 1008.7 |
| 20260506122305 | 18 | 167 | 1.6 | 11.3 | 0.00 | 0.00 | 0.00 | 79 | 1008.7 |
| 20260506122203 | 18 | 167 | 1.6 | 11.3 | 0.00 | 0.00 | 0.00 | 79 | 1008.7 |
| 20260506122104 | 18 | 167 | 1.6 | 11.3 | 0.00 | 0.00 | 0.00 | 80 | 1008.8 |
| 20260506122001 | 18 | 167 | 1.6 | 8.0 | 0.00 | 0.00 | 0.00 | 79 | 1008.8 |
| 20260506121901 | 18 | 167 | 1.6 | 8.0 | 0.00 | 0.00 | 0.00 | 79 | 1008.8 |
| 20260506121802 | 18 | 167 | 1.6 | 8.0 | 0.00 | 0.00 | 0.00 | 79 | 1008.8 |
| 20260506121701 | 18 | 175 | 1.6 | 8.0 | 0.00 | 0.00 | 0.00 | 79 | 1008.8 |
| 20260506121602 | 18 | 140 | 1.6 | 8.0 | 0.00 | 0.00 | 0.00 | 80 | 1008.9 |
| 20260506121501 | 18 | 160 | 0.0 | 8.0 | 0.00 | 0.00 | 0.00 | 79 | 1008.9 |
| 20260506121358 | 18 | 179 | 0.0 | 4.8 | 0.00 | 0.00 | 0.00 | 79 | 1008.8 |
| 20260506121331 | 18 | 179 | 0.0 | 4.8 | 0.00 | 0.00 | 0.00 | 80 | 1008.8 |
| 20260506121024 | 18 | 194 | 0.0 | 4.8 | 0.00 | 0.00 | 0.00 | 80 | 1008.8 |
| 20260506120654 | 18 | 185 | 0.0 | 6.4 | 0.00 | 0.00 | 0.00 | 80 | 1008.9 |
| 20260506120553 | 18 | 185 | 0.0 | 6.4 | 0.00 | 0.00 | 0.00 | 80 | 1008.9 |
| 20260506120454 | 18 | 185 | 0.0 | 6.4 | 0.00 | 0.00 | 0.00 | 80 | 1008.9 |
| 20260506120351 | 18 | 189 | 0.0 | 6.4 | 0.00 | 0.00 | 0.00 | 80 | 1008.9 |
| 20260506120251 | 18 | 189 | 0.0 | 6.4 | 0.00 | 0.00 | 0.00 | 80 | 1009.0 |
| 20260506120151 | 18 | 182 | 0.0 | 6.4 | 0.00 | 0.00 | 0.00 | 80 | 1009.0 |
| 20260506120134 | 18 | 183 | 0.0 | 6.4 | 0.00 | 0.00 | 0.00 | 80 | 1008.9 |
| 20260506115648 | 18 | 195 | 0.0 | 8.0 | 0.00 | 0.00 | 0.00 | 80 | 1009.1 |
| 20260506115548 | 18 | 194 | 0.0 | 8.0 | 0.00 | 0.00 | 0.00 | 80 | 1009.0 |
| 20260506115447 | 18 | 194 | 0.0 | 8.0 | 0.00 | 0.00 | 0.00 | 80 | 1009.0 |
| 20260506115345 | 18 | 194 | 0.0 | 8.0 | 0.00 | 0.00 | 0.00 | 80 | 1009.1 |
| 20260506115246 | 18 | 194 | 0.0 | 8.0 | 0.00 | 0.00 | 0.00 | 80 | 1009.0 |
| 20260506115146 | 18 | 194 | 1.6 | 9.7 | 0.00 | 0.00 | 0.00 | 80 | 1009.0 |
| 20260506115046 | 18 | 246 | 1.6 | 11.3 | 0.00 | 0.00 | 0.00 | 80 | 1009.1 |
| 20260506114946 | 18 | 247 | 1.6 | 11.3 | 0.00 | 0.00 | 0.00 | 80 | 1009.1 |
| 20260506114845 | 18 | 247 | 1.6 | 11.3 | 0.00 | 0.00 | 0.00 | 80 | 1009.1 |
| 20260506114814 | 18 | 136 | 1.6 | 11.3 | 0.00 | 0.00 | 0.00 | 80 | 1009.2 |
| 20260506114444 | 18 | 115 | 1.6 | 11.3 | 0.00 | 0.00 | 0.00 | 80 | 1009.2 |
| 20260506114345 | 18 | 115 | 1.6 | 11.3 | 0.00 | 0.00 | 0.00 | 80 | 1009.2 |
| 20260506114242 | 18 | 115 | 1.6 | 11.3 | 0.00 | 0.00 | 0.00 | 80 | 1009.2 |
| 20260506114140 | 18 | 235 | 1.6 | 11.3 | 0.00 | 0.00 | 0.00 | 80 | 1009.2 |
| 20260506114055 | 18 | 188 | 0.0 | 6.4 | 0.00 | 0.00 | 0.00 | 80 | 1009.2 |
| 20260506113839 | 18 | 194 | 1.6 | 6.4 | 0.00 | 0.00 | 0.00 | 80 | 1009.0 |
| 20260506113739 | 18 | 126 | 0.0 | 6.4 | 0.00 | 0.00 | 0.00 | 80 | 1009.1 |
| 20260506113639 | 18 | 126 | 1.6 | 6.4 | 0.00 | 0.00 | 0.00 | 80 | 1009.2 |
| 20260506113539 | 18 | 120 | 1.6 | 6.4 | 0.00 | 0.00 | 0.00 | 80 | 1009.1 |
| 20260506113456 | 18 | 119 | 1.6 | 6.4 | 0.00 | 0.00 | 0.00 | 80 | 1009.2 |
| 20260506113240 | 17 | 160 | 1.6 | 6.4 | 0.00 | 0.00 | 0.00 | 80 | 1009.1 |
| 20260506113140 | 17 | 160 | 1.6 | 6.4 | 0.00 | 0.00 | 0.00 | 80 | 1009.1 |
| 20260506113039 | 17 | 160 | 1.6 | 6.4 | 0.00 | 0.00 | 0.00 | 80 | 1009.1 |
| 20260506112940 | 17 | 136 | 1.6 | 6.4 | 0.00 | 0.00 | 0.00 | 80 | 1009.1 |
| 20260506112839 | 17 | 127 | 1.6 | 6.4 | 0.00 | 0.00 | 0.00 | 80 | 1009.1 |
| 20260506112736 | 17 | 146 | 1.6 | 6.4 | 0.00 | 0.00 | 0.00 | 80 | 1009.1 |
| 20260506112634 | 17 | 129 | 1.6 | 6.4 | 0.00 | 0.00 | 0.00 | 80 | 1009.1 |
| 20260506112551 | 17 | 117 | 1.6 | 6.4 | 0.00 | 0.00 | 0.00 | 80 | 1009.1 |
| 20260506112351 | 17 | 271 | 1.6 | 6.4 | 0.00 | 0.00 | 0.00 | 80 | 1009.1 |
| 20260506112204 | 17 | 162 | 1.6 | 6.4 | 0.00 | 0.00 | 0.00 | 81 | 1009.1 |
| 20260506111833 | 17 | 141 | 1.6 | 6.4 | 0.00 | 0.00 | 0.00 | 81 | 1009.1 |
| 20260506111734 | 17 | 161 | 1.6 | 6.4 | 0.00 | 0.00 | 0.00 | 81 | 1009.1 |
| 20260506111632 | 17 | 161 | 1.6 | 6.4 | 0.00 | 0.00 | 0.00 | 81 | 1009.1 |
| 20260506111532 | 17 | 156 | 1.6 | 4.8 | 0.00 | 0.00 | 0.00 | 81 | 1009.1 |
| 20260506111430 | 17 | 155 | 1.6 | 14.5 | 0.00 | 0.00 | 0.00 | 81 | 1009.0 |
| 20260506111329 | 17 | 155 | 1.6 | 14.5 | 0.00 | 0.00 | 0.00 | 81 | 1009.0 |
| 20260506111229 | 17 | 157 | 1.6 | 14.5 | 0.00 | 0.00 | 0.00 | 81 | 1009.1 |
| 20260506111145 | 17 | 155 | 1.6 | 14.5 | 0.00 | 0.00 | 0.00 | 81 | 1009.1 |
| 20260506110929 | 17 | 155 | 1.6 | 14.5 | 0.00 | 0.00 | 0.00 | 81 | 1009.1 |
| 20260506110828 | 17 | 155 | 1.6 | 14.5 | 0.00 | 0.00 | 0.00 | 81 | 1009.0 |
| 20260506110745 | 17 | 140 | 1.6 | 14.5 | 0.00 | 0.00 | 0.00 | 81 | 1009.0 |
| 20260506110528 | 17 | 69 | 0.0 | 14.5 | 0.00 | 0.00 | 0.00 | 81 | 1009.0 |
| 20260506110427 | 17 | 140 | 0.0 | 6.4 | 0.00 | 0.00 | 0.00 | 81 | 1009.0 |
| 20260506110327 | 17 | 140 | 0.0 | 6.4 | 0.00 | 0.00 | 0.00 | 82 | 1008.9 |
| 20260506110225 | 17 | 281 | 0.0 | 4.8 | 0.00 | 0.00 | 0.00 | 82 | 1009.0 |
| 20260506110125 | 17 | 290 | 0.0 | 4.8 | 0.00 | 0.00 | 0.00 | 82 | 1008.9 |
| 20260506110027 | 17 | 115 | 0.0 | 3.2 | 0.00 | 0.00 | 0.00 | 82 | 1009.0 |
| 20260506105940 | 17 | 115 | 0.0 | 1.6 | 0.00 | 0.00 | 0.00 | 82 | 1009.0 |
| 20260506105724 | 17 | 130 | 0.0 | 4.8 | 0.00 | 0.00 | 0.00 | 83 | 1009.0 |
| 20260506105626 | 17 | 130 | 0.0 | 4.8 | 0.00 | 0.00 | 0.00 | 83 | 1009.0 |
| 20260506105540 | 17 | 186 | 0.0 | 4.8 | 0.00 | 0.00 | 0.00 | 83 | 1009.0 |
| 20260506105355 | 17 | 188 | 0.0 | 4.8 | 0.00 | 0.00 | 0.00 | 83 | 1009.0 |
| 20260506105025 | 17 | 188 | 0.0 | 4.8 | 0.00 | 0.00 | 0.00 | 83 | 1008.9 |
| 20260506104926 | 17 | 188 | 0.0 | 4.8 | 0.00 | 0.00 | 0.00 | 82 | 1008.9 |
| 20260506104842 | 17 | 143 | 0.0 | 4.8 | 0.00 | 0.00 | 0.00 | 82 | 1008.8 |
| 20260506104626 | 17 | 138 | 0.0 | 3.2 | 0.00 | 0.00 | 0.00 | 83 | 1008.8 |
| 20260506104524 | 17 | 138 | 0.0 | 3.2 | 0.00 | 0.00 | 0.00 | 83 | 1008.8 |
| 20260506104426 | 17 | 138 | 0.0 | 1.6 | 0.00 | 0.00 | 0.00 | 83 | 1008.8 |
| 20260506104342 | 17 | 138 | 0.0 | 1.6 | 0.00 | 0.00 | 0.00 | 83 | 1008.8 |
| 20260506104126 | 17 | 114 | 0.0 | 1.6 | 0.00 | 0.00 | 0.00 | 83 | 1008.8 |
| 20260506104026 | 17 | 114 | 0.0 | 1.6 | 0.00 | 0.00 | 0.00 | 83 | 1008.8 |
| 20260506103927 | 17 | 114 | 0.0 | 4.8 | 0.00 | 0.00 | 0.00 | 83 | 1008.8 |
| 20260506103824 | 17 | 114 | 0.0 | 4.8 | 0.00 | 0.00 | 0.00 | 83 | 1008.8 |
| 20260506103725 | 17 | 114 | 0.0 | 4.8 | 0.00 | 0.00 | 0.00 | 83 | 1008.8 |
| 20260506103655 | 17 | 113 | 0.0 | 4.8 | 0.00 | 0.00 | 0.00 | 83 | 1008.8 |
| 20260506103325 | 17 | 130 | 0.0 | 4.8 | 0.00 | 0.00 | 0.00 | 83 | 1008.8 |
| 20260506103243 | 17 | 130 | 0.0 | 4.8 | 0.00 | 0.00 | 0.00 | 83 | 1008.9 |
| 20260506103025 | 17 | 119 | 0.0 | 4.8 | 0.00 | 0.00 | 0.00 | 83 | 1008.9 |
| 20260506102926 | 17 | 117 | 0.0 | 4.8 | 0.00 | 0.00 | 0.00 | 83 | 1008.9 |
| 20260506102826 | 17 | 126 | 0.0 | 4.8 | 0.00 | 0.00 | 0.00 | 83 | 1008.9 |
| 20260506102727 | 17 | 126 | 0.0 | 4.8 | 0.00 | 0.00 | 0.00 | 83 | 1008.9 |
| 20260506102625 | 17 | 126 | 0.0 | 4.8 | 0.00 | 0.00 | 0.00 | 83 | 1008.9 |
| 20260506102525 | 17 | 126 | 0.0 | 4.8 | 0.00 | 0.00 | 0.00 | 83 | 1008.9 |
| 20260506102424 | 17 | 124 | 0.0 | 4.8 | 0.00 | 0.00 | 0.00 | 83 | 1008.9 |
| 20260506102325 | 17 | 124 | 0.0 | 4.8 | 0.00 | 0.00 | 0.00 | 83 | 1008.9 |
| 20260506102226 | 17 | 124 | 0.0 | 4.8 | 0.00 | 0.00 | 0.00 | 83 | 1008.9 |
| 20260506102125 | 17 | 146 | 0.0 | 3.2 | 0.00 | 0.00 | 0.00 | 83 | 1008.9 |
| 20260506102025 | 17 | 136 | 0.0 | 3.2 | 0.00 | 0.00 | 0.00 | 83 | 1008.8 |
| 20260506101926 | 17 | 136 | 0.0 | 3.2 | 0.00 | 0.00 | 0.00 | 83 | 1008.9 |
| 20260506101824 | 17 | 135 | 0.0 | 3.2 | 0.00 | 0.00 | 0.00 | 83 | 1008.8 |
| 20260506101757 | 17 | 135 | 0.0 | 3.2 | 0.00 | 0.00 | 0.00 | 83 | 1008.8 |
| 20260506101426 | 17 | 129 | 0.0 | 3.2 | 0.00 | 0.00 | 0.00 | 83 | 1008.8 |
| 20260506101327 | 17 | 129 | 0.0 | 3.2 | 0.00 | 0.00 | 0.00 | 83 | 1008.8 |
| 20260506101226 | 17 | 129 | 0.0 | 3.2 | 0.00 | 0.00 | 0.00 | 83 | 1008.7 |
| 20260506101125 | 17 | 179 | 0.0 | 3.2 | 0.00 | 0.00 | 0.00 | 83 | 1008.8 |
| 20260506101026 | 17 | 179 | 0.0 | 4.8 | 0.00 | 0.00 | 0.00 | 83 | 1008.8 |
| 20260506100925 | 17 | 179 | 0.0 | 4.8 | 0.00 | 0.00 | 0.00 | 83 | 1008.8 |
| 20260506100842 | 17 | 179 | 0.0 | 4.8 | 0.00 | 0.00 | 0.00 | 83 | 1008.7 |
| 20260506100627 | 17 | 113 | 0.0 | 4.8 | 0.00 | 0.00 | 0.00 | 83 | 1008.8 |
| 20260506100525 | 17 | 113 | 0.0 | 4.8 | 0.00 | 0.00 | 0.00 | 83 | 1008.8 |
| 20260506100427 | 17 | 113 | 0.0 | 4.8 | 0.00 | 0.00 | 0.00 | 83 | 1008.8 |
| 20260506100339 | 17 | 113 | 0.0 | 4.8 | 0.00 | 0.00 | 0.00 | 83 | 1008.8 |
| 20260506100209 | 17 | 113 | 0.0 | 4.8 | 0.00 | 0.00 | 0.00 | 83 | 1008.8 |
| 20260506095725 | 17 | 154 | 0.0 | 3.2 | 0.00 | 0.00 | 0.00 | 83 | 1008.8 |
| 20260506095640 | 17 | 155 | 0.0 | 1.6 | 0.00 | 0.00 | 0.00 | 83 | 1008.8 |
| 20260506095426 | 17 | 113 | 0.0 | 1.6 | 0.00 | 0.00 | 0.00 | 83 | 1008.7 |
| 20260506095325 | 17 | 113 | 0.0 | 1.6 | 0.00 | 0.00 | 0.00 | 83 | 1008.6 |
| 20260506095226 | 17 | 113 | 0.0 | 1.6 | 0.00 | 0.00 | 0.00 | 83 | 1008.6 |
| 20260506095124 | 17 | 114 | 0.0 | 1.6 | 0.00 | 0.00 | 0.00 | 83 | 1008.6 |
| 20260506095054 | 17 | 142 | 0.0 | 4.8 | 0.00 | 0.00 | 0.00 | 84 | 1008.6 |
| 20260506094726 | 17 | 140 | 0.0 | 4.8 | 0.00 | 0.00 | 0.00 | 83 | 1008.7 |
| 20260506094624 | 17 | 140 | 0.0 | 4.8 | 0.00 | 0.00 | 0.00 | 83 | 1008.6 |
| 20260506094526 | 17 | 134 | 0.0 | 4.8 | 0.00 | 0.00 | 0.00 | 84 | 1008.6 |
| 20260506094426 | 17 | 135 | 0.0 | 4.8 | 0.00 | 0.00 | 0.00 | 83 | 1008.6 |
| 20260506094325 | 17 | 135 | 0.0 | 4.8 | 0.00 | 0.00 | 0.00 | 83 | 1008.6 |
| 20260506094224 | 17 | 134 | 0.0 | 4.8 | 0.00 | 0.00 | 0.00 | 83 | 1008.6 |
| 20260506094126 | 17 | 134 | 0.0 | 4.8 | 0.00 | 0.00 | 0.00 | 83 | 1008.6 |
| 20260506094040 | 17 | 150 | 0.0 | 3.2 | 0.00 | 0.00 | 0.00 | 83 | 1008.6 |
| 20260506093839 | 17 | 149 | 0.0 | 3.2 | 0.00 | 0.00 | 0.00 | 83 | 1008.7 |
| 20260506093641 | 17 | 149 | 0.0 | 3.2 | 0.00 | 0.00 | 0.00 | 83 | 1008.6 |
| 20260506093426 | 17 | 151 | 0.0 | 3.2 | 0.00 | 0.00 | 0.00 | 83 | 1008.5 |
| 20260506093326 | 17 | 151 | 0.0 | 3.2 | 0.00 | 0.00 | 0.00 | 83 | 1008.6 |
| 20260506093225 | 17 | 151 | 0.0 | 3.2 | 0.00 | 0.00 | 0.00 | 83 | 1008.6 |
| 20260506093124 | 17 | 158 | 0.0 | 3.2 | 0.00 | 0.00 | 0.00 | 83 | 1008.7 |
| 20260506093027 | 17 | 188 | 0.0 | 3.2 | 0.00 | 0.00 | 0.00 | 83 | 1008.7 |
| 20260506092925 | 17 | 189 | 0.0 | 3.2 | 0.00 | 0.00 | 0.00 | 83 | 1008.7 |
| 20260506092841 | 17 | 189 | 0.0 | 3.2 | 0.00 | 0.00 | 0.00 | 83 | 1008.6 |
| 20260506092626 | 17 | 189 | 0.0 | 3.2 | 0.00 | 0.00 | 0.00 | 83 | 1008.7 |
| 20260506092525 | 17 | 189 | 0.0 | 3.2 | 0.00 | 0.00 | 0.00 | 83 | 1008.7 |
| 20260506092426 | 17 | 189 | 0.0 | 3.2 | 0.00 | 0.00 | 0.00 | 83 | 1008.7 |
| 20260506092342 | 17 | 189 | 0.0 | 3.2 | 0.00 | 0.00 | 0.00 | 83 | 1008.7 |
| 20260506092125 | 17 | 127 | 0.0 | 3.2 | 0.00 | 0.00 | 0.00 | 83 | 1008.7 |
| 20260506092026 | 17 | 127 | 0.0 | 3.2 | 0.00 | 0.00 | 0.00 | 83 | 1008.7 |
| 20260506091927 | 16 | 127 | 0.0 | 3.2 | 0.00 | 0.00 | 0.00 | 83 | 1008.8 |
| 20260506091826 | 17 | 127 | 0.0 | 3.2 | 0.00 | 0.00 | 0.00 | 83 | 1008.8 |
| 20260506091726 | 16 | 127 | 0.0 | 3.2 | 0.00 | 0.00 | 0.00 | 83 | 1008.7 |
| 20260506091627 | 16 | 127 | 0.0 | 3.2 | 0.00 | 0.00 | 0.00 | 83 | 1008.8 |
| 20260506091542 | 16 | 141 | 0.0 | 3.2 | 0.00 | 0.00 | 0.00 | 83 | 1008.8 |
| 20260506091327 | 17 | 141 | 0.0 | 3.2 | 0.00 | 0.00 | 0.00 | 83 | 1008.8 |
| 20260506091226 | 17 | 141 | 0.0 | 3.2 | 0.00 | 0.00 | 0.00 | 83 | 1008.7 |
| 20260506091125 | 17 | 141 | 0.0 | 3.2 | 0.00 | 0.00 | 0.00 | 83 | 1008.8 |
| 20260506091041 | 17 | 141 | 0.0 | 3.2 | 0.00 | 0.00 | 0.00 | 83 | 1008.8 |
| 20260506090826 | 17 | 141 | 0.0 | 3.2 | 0.00 | 0.00 | 0.00 | 83 | 1008.8 |
| 20260506090740 | 17 | 141 | 0.0 | 3.2 | 0.00 | 0.00 | 0.00 | 83 | 1008.8 |
| 20260506090524 | 17 | 141 | 0.0 | 3.2 | 0.00 | 0.00 | 0.00 | 83 | 1008.9 |
| 20260506090426 | 17 | 141 | 0.0 | 3.2 | 0.00 | 0.00 | 0.00 | 83 | 1008.9 |
| 20260506090339 | 17 | 141 | 0.0 | 3.2 | 0.00 | 0.00 | 0.00 | 83 | 1008.9 |
| 20260506090126 | 17 | 141 | 0.0 | 3.2 | 0.00 | 0.00 | 0.00 | 83 | 1008.8 |
| 20260506090027 | 17 | 141 | 0.0 | 3.2 | 0.00 | 0.00 | 0.00 | 83 | 1008.9 |
| 20260506085925 | 17 | 142 | 0.0 | 3.2 | 0.00 | 0.00 | 0.00 | 83 | 1008.9 |
| 20260506085825 | 17 | 142 | 0.0 | 3.2 | 0.00 | 0.00 | 0.00 | 83 | 1008.8 |
| 20260506085724 | 17 | 142 | 0.0 | 3.2 | 0.00 | 0.00 | 0.00 | 83 | 1008.8 |
| 20260506085625 | 17 | 142 | 0.0 | 3.2 | 0.00 | 0.00 | 0.00 | 83 | 1008.8 |
| 20260506085525 | 17 | 142 | 0.0 | 3.2 | 0.00 | 0.00 | 0.00 | 83 | 1008.8 |
| 20260506085427 | 17 | 142 | 0.0 | 3.2 | 0.00 | 0.00 | 0.00 | 83 | 1008.8 |
| 20260506085324 | 17 | 142 | 0.0 | 3.2 | 0.00 | 0.00 | 0.00 | 83 | 1008.9 |
| 20260506085226 | 17 | 142 | 0.0 | 3.2 | 0.00 | 0.00 | 0.00 | 83 | 1008.9 |
| 20260506085140 | 17 | 142 | 0.0 | 3.2 | 0.00 | 0.00 | 0.00 | 82 | 1008.9 |
| 20260506084925 | 17 | 135 | 0.0 | 3.2 | 0.00 | 0.00 | 0.00 | 83 | 1008.9 |
| 20260506084824 | 17 | 135 | 0.0 | 3.2 | 0.00 | 0.00 | 0.00 | 83 | 1008.9 |
| 20260506084726 | 17 | 135 | 0.0 | 3.2 | 0.00 | 0.00 | 0.00 | 83 | 1008.9 |
| 20260506084626 | 17 | 135 | 0.0 | 3.2 | 0.00 | 0.00 | 0.00 | 83 | 1008.9 |
| 20260506084541 | 17 | 134 | 0.0 | 3.2 | 0.00 | 0.00 | 0.00 | 82 | 1008.9 |
| 20260506084326 | 17 | 113 | 0.0 | 1.6 | 0.00 | 0.00 | 0.00 | 82 | 1008.9 |
| 20260506084224 | 17 | 113 | 0.0 | 1.6 | 0.00 | 0.00 | 0.00 | 82 | 1008.9 |
| 20260506084126 | 17 | 113 | 0.0 | 1.6 | 0.00 | 0.00 | 0.00 | 82 | 1008.9 |
| 20260506084025 | 17 | 113 | 0.0 | 1.6 | 0.00 | 0.00 | 0.00 | 82 | 1008.9 |
| 20260506083926 | 17 | 113 | 0.0 | 1.6 | 0.00 | 0.00 | 0.00 | 82 | 1009.0 |
| 20260506083839 | 17 | 113 | 0.0 | 1.6 | 0.00 | 0.00 | 0.00 | 82 | 1008.9 |
| 20260506083641 | 17 | 113 | 0.0 | 1.6 | 0.00 | 0.00 | 0.00 | 82 | 1008.9 |
| 20260506083439 | 17 | 113 | 0.0 | 3.2 | 0.00 | 0.00 | 0.00 | 82 | 1008.9 |
| 20260506083225 | 17 | 113 | 0.0 | 3.2 | 0.00 | 0.00 | 0.00 | 82 | 1008.9 |
| 20260506083126 | 17 | 113 | 0.0 | 3.2 | 0.00 | 0.00 | 0.00 | 82 | 1008.9 |
| 20260506083025 | 17 | 113 | 0.0 | 3.2 | 0.00 | 0.00 | 0.00 | 82 | 1008.9 |
| 20260506082925 | 17 | 115 | 0.0 | 3.2 | 0.00 | 0.00 | 0.00 | 82 | 1008.9 |
| 20260506082841 | 17 | 115 | 0.0 | 3.2 | 0.00 | 0.00 | 0.00 | 82 | 1008.9 |
| 20260506082637 | 17 | 114 | 0.0 | 3.2 | 0.00 | 0.00 | 0.00 | 82 | 1009.0 |
| 20260506082422 | 17 | 111 | 0.0 | 4.8 | 0.00 | 0.00 | 0.00 | 82 | 1009.0 |
| 20260506082318 | 17 | 111 | 0.0 | 4.8 | 0.00 | 0.00 | 0.00 | 81 | 1009.0 |
| 20260506082236 | 17 | 111 | 0.0 | 4.8 | 0.00 | 0.00 | 0.00 | 81 | 1009.0 |
| 20260506082017 | 17 | 111 | 0.0 | 4.8 | 0.00 | 0.00 | 0.00 | 81 | 1009.0 |
| 20260506081932 | 17 | 113 | 0.0 | 4.8 | 0.00 | 0.00 | 0.00 | 81 | 1008.9 |
| 20260506081719 | 17 | 113 | 0.0 | 4.8 | 0.00 | 0.00 | 0.00 | 81 | 1009.0 |
| 20260506081631 | 17 | 111 | 0.0 | 4.8 | 0.00 | 0.00 | 0.00 | 81 | 1008.9 |
| 20260506081416 | 17 | 123 | 0.0 | 1.6 | 0.00 | 0.00 | 0.00 | 81 | 1009.0 |
| 20260506081329 | 17 | 123 | 0.0 | 1.6 | 0.00 | 0.00 | 0.00 | 81 | 1009.0 |
| 20260506081113 | 17 | 123 | 0.0 | 1.6 | 0.00 | 0.00 | 0.00 | 81 | 1009.0 |
| 20260506081009 | 17 | 123 | 0.0 | 1.6 | 0.00 | 0.00 | 0.00 | 81 | 1009.1 |
| 20260506080923 | 17 | 123 | 0.0 | 1.6 | 0.00 | 0.00 | 0.00 | 81 | 1009.0 |
| 20260506080704 | 17 | 114 | 0.0 | 0.0 | 0.00 | 0.00 | 0.00 | 80 | 1009.0 |
| 20260506080621 | 17 | 114 | 0.0 | 0.0 | 0.00 | 0.00 | 0.00 | 80 | 1009.0 |
| 20260506080403 | 17 | 114 | 0.0 | 0.0 | 0.00 | 0.00 | 0.00 | 80 | 1009.0 |
| 20260506080317 | 17 | 114 | 0.0 | 0.0 | 0.00 | 0.00 | 0.00 | 80 | 1009.0 |
| 20260506073442 | 17 | 112 | 0.0 | 4.8 | 0.00 | 0.00 | 0.00 | 78 | 1009.0 |
| 20260506073340 | 17 | 112 | 0.0 | 4.8 | 0.00 | 0.00 | 0.00 | 78 | 1009.0 |
| 20260506073241 | 17 | 112 | 0.0 | 4.8 | 0.00 | 0.00 | 0.00 | 78 | 1009.0 |
| 20260506073139 | 17 | 112 | 0.0 | 4.8 | 0.00 | 0.00 | 0.00 | 78 | 1009.0 |
| 20260506073040 | 17 | 112 | 0.0 | 4.8 | 0.00 | 0.00 | 0.00 | 78 | 1009.0 |
| 20260506072940 | 17 | 133 | 0.0 | 1.6 | 0.00 | 0.00 | 0.00 | 78 | 1009.1 |
| 20260506072838 | 17 | 133 | 0.0 | 3.2 | 0.00 | 0.00 | 0.00 | 78 | 1009.0 |
| 20260506072739 | 17 | 131 | 0.0 | 3.2 | 0.00 | 0.00 | 0.00 | 78 | 1009.0 |
| 20260506072638 | 17 | 131 | 0.0 | 3.2 | 0.00 | 0.00 | 0.00 | 78 | 1009.0 |
| 20260506072551 | 17 | 131 | 0.0 | 3.2 | 0.00 | 0.00 | 0.00 | 78 | 1009.1 |
| 20260506072335 | 17 | 131 | 0.0 | 3.2 | 0.00 | 0.00 | 0.00 | 77 | 1009.0 |
| 20260506072231 | 17 | 132 | 0.0 | 3.2 | 0.00 | 0.00 | 0.00 | 77 | 1009.0 |
| 20260506072131 | 17 | 132 | 0.0 | 3.2 | 0.00 | 0.00 | 0.00 | 77 | 1009.0 |
| 20260506072031 | 17 | 132 | 0.0 | 3.2 | 0.00 | 0.00 | 0.00 | 77 | 1009.0 |
| 20260506071930 | 18 | 132 | 0.0 | 3.2 | 0.00 | 0.00 | 0.00 | 77 | 1009.0 |
| 20260506071832 | 18 | 227 | 0.0 | 3.2 | 0.00 | 0.00 | 0.00 | 77 | 1009.0 |
| 20260506071732 | 18 | 165 | 0.0 | 3.2 | 0.00 | 0.00 | 0.00 | 77 | 1009.0 |
| 20260506071630 | 18 | 176 | 0.0 | 3.2 | 0.00 | 0.00 | 0.00 | 77 | 1009.0 |
| 20260506071530 | 18 | 176 | 0.0 | 3.2 | 0.00 | 0.00 | 0.00 | 77 | 1009.0 |
| 20260506071431 | 18 | 176 | 0.0 | 3.2 | 0.00 | 0.00 | 0.00 | 76 | 1009.0 |
| 20260506071346 | 18 | 176 | 0.0 | 3.2 | 0.00 | 0.00 | 0.00 | 76 | 1009.0 |
| 20260506071130 | 18 | 176 | 0.0 | 3.2 | 0.00 | 0.00 | 0.00 | 76 | 1009.0 |
| 20260506071030 | 18 | 176 | 0.0 | 3.2 | 0.00 | 0.00 | 0.00 | 76 | 1009.0 |
| 20260506070930 | 18 | 176 | 0.0 | 3.2 | 0.00 | 0.00 | 0.00 | 76 | 1009.0 |
| 20260506070832 | 18 | 176 | 0.0 | 3.2 | 0.00 | 0.00 | 0.00 | 76 | 1009.0 |
| 20260506070742 | 18 | 176 | 0.0 | 3.2 | 0.00 | 0.00 | 0.00 | 76 | 1009.0 |
| 20260506070555 | 18 | 176 | 0.0 | 3.2 | 0.00 | 0.00 | 0.00 | 76 | 1009.0 |
| 20260506070222 | 18 | 175 | 0.0 | 3.2 | 0.00 | 0.00 | 0.00 | 76 | 1009.0 |
| 20260506070122 | 18 | 175 | 0.0 | 3.2 | 0.00 | 0.00 | 0.00 | 76 | 1009.0 |
| 20260506062506 | 18 | 192 | 0.0 | 4.8 | 0.00 | 0.00 | 0.00 | 74 | 1009.3 |
| 20260506062248 | 18 | 192 | 0.0 | 4.8 | 0.00 | 0.00 | 0.00 | 74 | 1009.3 |
| 20260506062146 | 18 | 192 | 0.0 | 4.8 | 0.00 | 0.00 | 0.00 | 74 | 1009.3 |
| 20260506062047 | 18 | 134 | 0.0 | 4.8 | 0.00 | 0.00 | 0.00 | 74 | 1009.2 |
| 20260506062000 | 18 | 134 | 0.0 | 4.8 | 0.00 | 0.00 | 0.00 | 74 | 1009.2 |
| 20260506061744 | 18 | 134 | 0.0 | 4.8 | 0.00 | 0.00 | 0.00 | 74 | 1009.2 |
| 20260506061658 | 18 | 134 | 0.0 | 4.8 | 0.00 | 0.00 | 0.00 | 74 | 1009.2 |
| 20260506061455 | 18 | 134 | 0.0 | 4.8 | 0.00 | 0.00 | 0.00 | 74 | 1009.3 |
| 20260506061256 | 18 | 134 | 0.0 | 4.8 | 0.00 | 0.00 | 0.00 | 73 | 1009.2 |
| 20260506061038 | 18 | 152 | 0.0 | 3.2 | 0.00 | 0.00 | 0.00 | 73 | 1009.3 |
| 20260506060937 | 18 | 152 | 0.0 | 3.2 | 0.00 | 0.00 | 0.00 | 73 | 1009.3 |
| 20260506060836 | 18 | 152 | 0.0 | 3.2 | 0.00 | 0.00 | 0.00 | 73 | 1009.2 |
| 20260506060734 | 18 | 152 | 0.0 | 1.6 | 0.00 | 0.00 | 0.00 | 73 | 1009.3 |
| 20260506060634 | 18 | 152 | 0.0 | 1.6 | 0.00 | 0.00 | 0.00 | 73 | 1009.3 |
| 20260506060534 | 18 | 152 | 0.0 | 1.6 | 0.00 | 0.00 | 0.00 | 73 | 1009.3 |
| 20260506060434 | 18 | 152 | 0.0 | 3.2 | 0.00 | 0.00 | 0.00 | 73 | 1009.3 |
| 20260506060334 | 18 | 152 | 0.0 | 3.2 | 0.00 | 0.00 | 0.00 | 73 | 1009.3 |
| 20260506060232 | 18 | 152 | 0.0 | 3.2 | 0.00 | 0.00 | 0.00 | 73 | 1009.2 |
| 20260506060130 | 18 | 152 | 0.0 | 3.2 | 0.00 | 0.00 | 0.00 | 73 | 1009.3 |
| 20260506051354 | 18 | 236 | 0.0 | 3.2 | 0.00 | 0.00 | 0.00 | 70 | 1009.7 |
| 20260506051253 | 18 | 236 | 0.0 | 4.8 | 0.00 | 0.00 | 0.00 | 70 | 1009.7 |
| 20260506051152 | 18 | 236 | 0.0 | 4.8 | 0.00 | 0.00 | 0.00 | 70 | 1009.7 |
| 20260506051050 | 18 | 236 | 0.0 | 4.8 | 0.00 | 0.00 | 0.00 | 70 | 1009.7 |
| 20260506051007 | 18 | 236 | 0.0 | 4.8 | 0.00 | 0.00 | 0.00 | 70 | 1009.7 |
| 20260506050751 | 19 | 236 | 0.0 | 4.8 | 0.00 | 0.00 | 0.00 | 70 | 1009.7 |
| 20260506050651 | 19 | 236 | 0.0 | 4.8 | 0.00 | 0.00 | 0.00 | 70 | 1009.7 |
| 20260506050552 | 19 | 236 | 0.0 | 4.8 | 0.00 | 0.00 | 0.00 | 70 | 1009.7 |
| 20260506050449 | 19 | 236 | 0.0 | 4.8 | 0.00 | 0.00 | 0.00 | 69 | 1009.7 |
| 20260506050348 | 19 | 236 | 0.0 | 4.8 | 0.00 | 0.00 | 0.00 | 69 | 1009.7 |
| 20260506050303 | 19 | 211 | 0.0 | 4.8 | 0.00 | 0.00 | 0.00 | 69 | 1009.8 |
| 20260506045041 | 19 | 242 | 0.0 | 4.8 | 0.00 | 0.00 | 0.00 | 69 | 1009.8 |
| 20260506044939 | 19 | 242 | 0.0 | 4.8 | 0.00 | 0.00 | 0.00 | 69 | 1009.8 |
| 20260506044855 | 19 | 242 | 0.0 | 4.8 | 0.00 | 0.00 | 0.00 | 69 | 1009.8 |
| 20260506044637 | 19 | 242 | 0.0 | 4.8 | 0.00 | 0.00 | 0.00 | 68 | 1009.8 |
| 20260506044537 | 19 | 242 | 0.0 | 4.8 | 0.00 | 0.00 | 0.00 | 68 | 1009.8 |
| 20260506044435 | 19 | 242 | 0.0 | 3.2 | 0.00 | 0.00 | 0.00 | 68 | 1009.8 |
| 20260506044335 | 19 | 242 | 0.0 | 3.2 | 0.00 | 0.00 | 0.00 | 68 | 1009.8 |
| 20260506044235 | 19 | 242 | 0.0 | 3.2 | 0.00 | 0.00 | 0.00 | 68 | 1009.9 |
| 20260506044134 | 19 | 242 | 0.0 | 3.2 | 0.00 | 0.00 | 0.00 | 68 | 1009.8 |
| 20260506044033 | 19 | 242 | 0.0 | 4.8 | 0.00 | 0.00 | 0.00 | 68 | 1009.8 |
| 20260506043931 | 19 | 242 | 0.0 | 4.8 | 0.00 | 0.00 | 0.00 | 68 | 1009.8 |
| 20260506043831 | 19 | 242 | 0.0 | 4.8 | 0.00 | 0.00 | 0.00 | 68 | 1009.7 |
| 20260506043732 | 19 | 242 | 0.0 | 4.8 | 0.00 | 0.00 | 0.00 | 68 | 1009.8 |
| 20260506043630 | 19 | 242 | 0.0 | 4.8 | 0.00 | 0.00 | 0.00 | 68 | 1009.8 |
| 20260506043530 | 19 | 242 | 0.0 | 4.8 | 0.00 | 0.00 | 0.00 | 68 | 1009.8 |
| 20260506043444 | 19 | 242 | 0.0 | 4.8 | 0.00 | 0.00 | 0.00 | 68 | 1009.8 |
| 20260506043230 | 19 | 243 | 0.0 | 4.8 | 0.00 | 0.00 | 0.00 | 68 | 1009.8 |
| 20260506043131 | 19 | 243 | 0.0 | 4.8 | 0.00 | 0.00 | 0.00 | 68 | 1009.8 |
| 20260506043030 | 19 | 243 | 0.0 | 3.2 | 0.00 | 0.00 | 0.00 | 68 | 1009.9 |
| 20260506042927 | 19 | 243 | 0.0 | 3.2 | 0.00 | 0.00 | 0.00 | 68 | 1009.8 |
| 20260506042829 | 19 | 243 | 0.0 | 3.2 | 0.00 | 0.00 | 0.00 | 68 | 1009.8 |
| 20260506042726 | 19 | 243 | 0.0 | 3.2 | 0.00 | 0.00 | 0.00 | 68 | 1009.8 |
| 20260506042624 | 19 | 243 | 0.0 | 3.2 | 0.00 | 0.00 | 0.00 | 68 | 1009.8 |
| 20260506042525 | 19 | 243 | 0.0 | 3.2 | 0.00 | 0.00 | 0.00 | 68 | 1009.8 |
| 20260506042423 | 19 | 244 | 0.0 | 0.0 | 0.00 | 0.00 | 0.00 | 67 | 1009.8 |
| 20260506042338 | 19 | 244 | 0.0 | 0.0 | 0.00 | 0.00 | 0.00 | 67 | 1009.8 |
| 20260506042122 | 19 | 244 | 0.0 | 0.0 | 0.00 | 0.00 | 0.00 | 67 | 1009.8 |
| 20260506042021 | 19 | 248 | 0.0 | 1.6 | 0.00 | 0.00 | 0.00 | 67 | 1009.8 |
| 20260506041920 | 19 | 248 | 0.0 | 4.8 | 0.00 | 0.00 | 0.00 | 67 | 1009.8 |
| 20260506041834 | 19 | 248 | 0.0 | 4.8 | 0.00 | 0.00 | 0.00 | 67 | 1009.8 |
| 20260506041633 | 19 | 250 | 0.0 | 4.8 | 0.00 | 0.00 | 0.00 | 67 | 1009.8 |
| 20260506041429 | 19 | 250 | 0.0 | 4.8 | 0.00 | 0.00 | 0.00 | 67 | 1009.9 |
| 20260506041214 | 19 | 250 | 1.6 | 4.8 | 0.00 | 0.00 | 0.00 | 67 | 1009.8 |
| 20260506041129 | 20 | 250 | 1.6 | 4.8 | 0.00 | 0.00 | 0.00 | 67 | 1009.8 |
| 20260506040912 | 19 | 250 | 0.0 | 4.8 | 0.00 | 0.00 | 0.00 | 67 | 1009.8 |
| 20260506040809 | 19 | 250 | 0.0 | 4.8 | 0.00 | 0.00 | 0.00 | 67 | 1009.8 |
| 20260506040709 | 19 | 252 | 0.0 | 4.8 | 0.00 | 0.00 | 0.00 | 67 | 1009.8 |
| 20260506040624 | 20 | 252 | 0.0 | 4.8 | 0.00 | 0.00 | 0.00 | 67 | 1009.8 |
| 20260506040409 | 20 | 252 | 0.0 | 4.8 | 0.00 | 0.00 | 0.00 | 67 | 1009.7 |
| 20260506040308 | 20 | 252 | 0.0 | 3.2 | 0.00 | 0.00 | 0.00 | 67 | 1009.7 |
| 20260506040224 | 20 | 252 | 0.0 | 3.2 | 0.00 | 0.00 | 0.00 | 66 | 1009.8 |
| 20260506040008 | 20 | 252 | 0.0 | 3.2 | 0.00 | 0.00 | 0.00 | 66 | 1009.7 |
| 20260506035903 | 20 | 252 | 0.0 | 3.2 | 0.00 | 0.00 | 0.00 | 67 | 1009.7 |
| 20260506035804 | 20 | 254 | 0.0 | 3.2 | 0.00 | 0.00 | 0.00 | 67 | 1009.7 |
| 20260506035704 | 20 | 254 | 0.0 | 3.2 | 0.00 | 0.00 | 0.00 | 66 | 1009.7 |
| 20260506035602 | 20 | 254 | 0.0 | 3.2 | 0.00 | 0.00 | 0.00 | 67 | 1009.7 |
| 20260506035459 | 20 | 254 | 0.0 | 3.2 | 0.00 | 0.00 | 0.00 | 66 | 1009.7 |
| 20260506035359 | 20 | 254 | 0.0 | 3.2 | 0.00 | 0.00 | 0.00 | 66 | 1009.7 |
| 20260506035258 | 20 | 259 | 0.0 | 4.8 | 0.00 | 0.00 | 0.00 | 66 | 1009.7 |
| 20260506035158 | 20 | 259 | 0.0 | 4.8 | 0.00 | 0.00 | 0.00 | 66 | 1009.7 |
| 20260506035110 | 20 | 259 | 0.0 | 4.8 | 0.00 | 0.00 | 0.00 | 66 | 1009.7 |
| 20260506034909 | 20 | 259 | 0.0 | 4.8 | 0.00 | 0.00 | 0.00 | 66 | 1009.7 |
| 20260506034652 | 20 | 259 | 1.6 | 4.8 | 0.00 | 0.00 | 0.00 | 66 | 1009.7 |
| 20260506034552 | 20 | 259 | 1.6 | 4.8 | 0.00 | 0.00 | 0.00 | 66 | 1009.7 |
| 20260506034450 | 20 | 259 | 1.6 | 9.7 | 0.00 | 0.00 | 0.00 | 66 | 1009.8 |
| 20260506034403 | 20 | 147 | 1.6 | 9.7 | 0.00 | 0.00 | 0.00 | 66 | 1009.8 |
| 20260506034147 | 20 | 146 | 0.0 | 9.7 | 0.00 | 0.00 | 0.00 | 65 | 1009.7 |
| 20260506034046 | 20 | 148 | 0.0 | 9.7 | 0.00 | 0.00 | 0.00 | 66 | 1009.8 |
| 20260506033946 | 20 | 148 | 0.0 | 9.7 | 0.00 | 0.00 | 0.00 | 65 | 1009.7 |
| 20260506033845 | 20 | 151 | 0.0 | 9.7 | 0.00 | 0.00 | 0.00 | 65 | 1009.7 |
| 20260506033802 | 20 | 151 | 0.0 | 9.7 | 0.00 | 0.00 | 0.00 | 65 | 1009.7 |
| 20260506033602 | 20 | 125 | 0.0 | 9.7 | 0.00 | 0.00 | 0.00 | 65 | 1009.8 |
| 20260506033346 | 20 | 228 | 0.0 | 3.2 | 0.00 | 0.00 | 0.00 | 65 | 1009.8 |
| 20260506033243 | 20 | 228 | 0.0 | 3.2 | 0.00 | 0.00 | 0.00 | 65 | 1009.8 |
| 20260506033141 | 20 | 228 | 0.0 | 3.2 | 0.00 | 0.00 | 0.00 | 65 | 1009.7 |
| 20260506033042 | 20 | 228 | 0.0 | 3.2 | 0.00 | 0.00 | 0.00 | 65 | 1009.7 |
| 20260506032942 | 20 | 228 | 0.0 | 3.2 | 0.00 | 0.00 | 0.00 | 65 | 1009.8 |
| 20260506032857 | 20 | 228 | 0.0 | 3.2 | 0.00 | 0.00 | 0.00 | 65 | 1009.8 |
| 20260506032640 | 20 | 227 | 0.0 | 3.2 | 0.00 | 0.00 | 0.00 | 65 | 1009.9 |
| 20260506032540 | 20 | 227 | 0.0 | 6.4 | 0.00 | 0.00 | 0.00 | 65 | 1009.8 |
| 20260506032437 | 20 | 228 | 0.0 | 6.4 | 0.00 | 0.00 | 0.00 | 65 | 1009.7 |
| 20260506032337 | 20 | 228 | 0.0 | 6.4 | 0.00 | 0.00 | 0.00 | 65 | 1009.8 |
| 20260506032237 | 20 | 228 | 0.0 | 6.4 | 0.00 | 0.00 | 0.00 | 65 | 1009.7 |
| 20260506032221 | 20 | 228 | 0.0 | 6.4 | 0.00 | 0.00 | 0.00 | 65 | 1009.7 |
| 20260506031732 | 20 | 228 | 0.0 | 6.4 | 0.00 | 0.00 | 0.00 | 64 | 1009.7 |
| 20260506031645 | 20 | 228 | 0.0 | 6.4 | 0.00 | 0.00 | 0.00 | 64 | 1009.7 |
| 20260506031429 | 20 | 191 | 0.0 | 4.8 | 0.00 | 0.00 | 0.00 | 64 | 1009.7 |
| 20260506031330 | 20 | 191 | 0.0 | 4.8 | 0.00 | 0.00 | 0.00 | 64 | 1009.7 |
| 20260506031229 | 20 | 191 | 0.0 | 4.8 | 0.00 | 0.00 | 0.00 | 64 | 1009.8 |
| 20260506031142 | 20 | 191 | 0.0 | 4.8 | 0.00 | 0.00 | 0.00 | 64 | 1009.7 |
| 20260506030926 | 20 | 189 | 1.6 | 12.9 | 0.00 | 0.00 | 0.00 | 63 | 1009.7 |
| 20260506030840 | 20 | 219 | 1.6 | 12.9 | 0.00 | 0.00 | 0.00 | 63 | 1009.8 |
| 20260506030621 | 20 | 211 | 1.6 | 12.9 | 0.00 | 0.00 | 0.00 | 63 | 1009.7 |
| 20260506030520 | 20 | 211 | 1.6 | 12.9 | 0.00 | 0.00 | 0.00 | 63 | 1009.7 |
| 20260506030419 | 20 | 184 | 1.6 | 12.9 | 0.00 | 0.00 | 0.00 | 63 | 1009.7 |
| 20260506030317 | 20 | 186 | 1.6 | 12.9 | 0.00 | 0.00 | 0.00 | 63 | 1009.7 |
| 20260506030218 | 20 | 185 | 1.6 | 12.9 | 0.00 | 0.00 | 0.00 | 63 | 1009.7 |
| 20260506030117 | 20 | 183 | 1.6 | 12.9 | 0.00 | 0.00 | 0.00 | 63 | 1009.7 |
| 20260506030031 | 20 | 117 | 0.0 | 11.3 | 0.00 | 0.00 | 0.00 | 63 | 1009.7 |
| 20260506025816 | 20 | 123 | 0.0 | 3.2 | 0.00 | 0.00 | 0.00 | 63 | 1009.7 |
| 20260506025713 | 21 | 134 | 0.0 | 3.2 | 0.00 | 0.00 | 0.00 | 63 | 1009.7 |
| 20260506025612 | 21 | 134 | 0.0 | 3.2 | 0.00 | 0.00 | 0.00 | 63 | 1009.7 |
| 20260506025513 | 21 | 134 | 0.0 | 3.2 | 0.00 | 0.00 | 0.00 | 62 | 1009.6 |
| 20260506025412 | 21 | 134 | 1.6 | 3.2 | 0.00 | 0.00 | 0.00 | 62 | 1009.6 |
| 20260506025325 | 21 | 144 | 1.6 | 6.4 | 0.00 | 0.00 | 0.00 | 62 | 1009.7 |
| 20260506025110 | 21 | 167 | 1.6 | 6.4 | 0.00 | 0.00 | 0.00 | 62 | 1009.6 |
| 20260506025008 | 21 | 167 | 1.6 | 6.4 | 0.00 | 0.00 | 0.00 | 62 | 1009.6 |
| 20260506024909 | 21 | 205 | 1.6 | 6.4 | 0.00 | 0.00 | 0.00 | 62 | 1009.6 |
| 20260506024804 | 21 | 205 | 1.6 | 6.4 | 0.00 | 0.00 | 0.00 | 62 | 1009.6 |
| 20260506024718 | 21 | 205 | 1.6 | 6.4 | 0.00 | 0.00 | 0.00 | 61 | 1009.5 |
| 20260506024505 | 21 | 178 | 1.6 | 6.4 | 0.00 | 0.00 | 0.00 | 61 | 1009.6 |
| 20260506024408 | 21 | 167 | 1.6 | 6.4 | 0.00 | 0.00 | 0.00 | 61 | 1009.5 |
| 20260506024352 | 21 | 174 | 1.6 | 4.8 | 0.00 | 0.00 | 0.00 | 61 | 1009.5 |
| 20260506023902 | 21 | 201 | 1.6 | 11.3 | 0.00 | 0.00 | 0.00 | 60 | 1009.6 |
| 20260506023803 | 21 | 201 | 1.6 | 11.3 | 0.00 | 0.00 | 0.00 | 60 | 1009.6 |
| 20260506023703 | 21 | 200 | 1.6 | 11.3 | 0.00 | 0.00 | 0.00 | 60 | 1009.6 |
| 20260506023603 | 21 | 208 | 1.6 | 11.3 | 0.00 | 0.00 | 0.00 | 60 | 1009.6 |
| 20260506023502 | 21 | 209 | 1.6 | 11.3 | 0.00 | 0.00 | 0.00 | 60 | 1009.5 |
| 20260506023416 | 21 | 209 | 1.6 | 11.3 | 0.00 | 0.00 | 0.00 | 60 | 1009.6 |
| 20260506023213 | 21 | 126 | 1.6 | 11.3 | 0.00 | 0.00 | 0.00 | 59 | 1009.6 |
| 20260506022959 | 21 | 226 | 1.6 | 6.4 | 0.00 | 0.00 | 0.00 | 59 | 1009.5 |
| 20260506022858 | 21 | 172 | 1.6 | 6.4 | 0.00 | 0.00 | 0.00 | 59 | 1009.6 |
| 20260506022801 | 21 | 143 | 1.6 | 6.4 | 0.00 | 0.00 | 0.00 | 59 | 1009.6 |
| 20260506022659 | 21 | 196 | 1.6 | 6.4 | 0.00 | 0.00 | 0.00 | 59 | 1009.5 |
| 20260506022558 | 21 | 178 | 1.6 | 12.9 | 0.00 | 0.00 | 0.00 | 59 | 1009.5 |
| 20260506022458 | 21 | 139 | 1.6 | 12.9 | 0.00 | 0.00 | 0.00 | 59 | 1009.5 |
| 20260506022359 | 21 | 190 | 1.6 | 12.9 | 0.00 | 0.00 | 0.00 | 59 | 1009.4 |
| 20260506022256 | 21 | 190 | 1.6 | 12.9 | 0.00 | 0.00 | 0.00 | 59 | 1009.5 |
| 20260506022155 | 21 | 190 | 1.6 | 12.9 | 0.00 | 0.00 | 0.00 | 58 | 1009.5 |
| 20260506022057 | 21 | 188 | 1.6 | 12.9 | 0.00 | 0.00 | 0.00 | 58 | 1009.4 |
| 20260506021953 | 21 | 188 | 1.6 | 12.9 | 0.00 | 0.00 | 0.00 | 58 | 1009.4 |
| 20260506021853 | 21 | 189 | 1.6 | 12.9 | 0.00 | 0.00 | 0.00 | 58 | 1009.5 |
| 20260506021751 | 21 | 187 | 1.6 | 12.9 | 0.00 | 0.00 | 0.00 | 58 | 1009.4 |
| 20260506021652 | 21 | 174 | 1.6 | 12.9 | 0.00 | 0.00 | 0.00 | 58 | 1009.4 |
| 20260506021553 | 21 | 225 | 1.6 | 8.0 | 0.00 | 0.00 | 0.00 | 57 | 1009.5 |
| 20260506021449 | 21 | 140 | 1.6 | 6.4 | 0.00 | 0.00 | 0.00 | 57 | 1009.5 |
| 20260506021349 | 21 | 134 | 1.6 | 6.4 | 0.00 | 0.00 | 0.00 | 57 | 1009.5 |
| 20260506021247 | 21 | 134 | 1.6 | 6.4 | 0.00 | 0.00 | 0.00 | 56 | 1009.5 |
| 20260506021148 | 22 | 134 | 1.6 | 6.4 | 0.00 | 0.00 | 0.00 | 56 | 1009.4 |
| 20260506021046 | 22 | 134 | 1.6 | 6.4 | 0.00 | 0.00 | 0.00 | 56 | 1009.5 |
| 20260506020947 | 22 | 211 | 1.6 | 6.4 | 0.00 | 0.00 | 0.00 | 56 | 1009.4 |
| 20260506020846 | 22 | 133 | 1.6 | 6.4 | 0.00 | 0.00 | 0.00 | 56 | 1009.4 |
| 20260506020747 | 22 | 182 | 1.6 | 4.8 | 0.00 | 0.00 | 0.00 | 56 | 1009.5 |
| 20260506020646 | 22 | 182 | 1.6 | 4.8 | 0.00 | 0.00 | 0.00 | 56 | 1009.4 |
| 20260506020546 | 22 | 183 | 1.6 | 9.7 | 0.00 | 0.00 | 0.00 | 55 | 1009.4 |
| 20260506020447 | 22 | 175 | 1.6 | 9.7 | 0.00 | 0.00 | 0.00 | 55 | 1009.4 |
| 20260506020357 | 22 | 174 | 3.2 | 9.7 | 0.00 | 0.00 | 0.00 | 55 | 1009.3 |
| 20260506020144 | 22 | 177 | 3.2 | 9.7 | 0.00 | 0.00 | 0.00 | 55 | 1009.4 |
| 20260506020044 | 22 | 189 | 3.2 | 11.3 | 0.00 | 0.00 | 0.00 | 55 | 1009.4 |
| 20260506015942 | 22 | 189 | 3.2 | 11.3 | 0.00 | 0.00 | 0.00 | 55 | 1009.3 |
| 20260506015841 | 22 | 194 | 1.6 | 11.3 | 0.00 | 0.00 | 0.00 | 54 | 1009.4 |
| 20260506015740 | 22 | 205 | 1.6 | 11.3 | 0.00 | 0.00 | 0.00 | 54 | 1009.3 |
| 20260506015638 | 22 | 163 | 1.6 | 11.3 | 0.00 | 0.00 | 0.00 | 54 | 1009.3 |
| 20260506015538 | 22 | 243 | 1.6 | 11.3 | 0.00 | 0.00 | 0.00 | 54 | 1009.3 |
| 20260506015439 | 22 | 191 | 1.6 | 11.3 | 0.00 | 0.00 | 0.00 | 54 | 1009.3 |
| 20260506015337 | 22 | 210 | 1.6 | 11.3 | 0.00 | 0.00 | 0.00 | 53 | 1009.3 |
| 20260506015236 | 22 | 102 | 1.6 | 11.3 | 0.00 | 0.00 | 0.00 | 53 | 1009.3 |
| 20260506015136 | 22 | 114 | 1.6 | 9.7 | 0.00 | 0.00 | 0.00 | 53 | 1009.3 |
| 20260506015051 | 22 | 212 | 1.6 | 9.7 | 0.00 | 0.00 | 0.00 | 52 | 1009.3 |
| 20260506014833 | 22 | 136 | 1.6 | 9.7 | 0.00 | 0.00 | 0.00 | 52 | 1009.2 |
| 20260506014732 | 22 | 136 | 1.6 | 9.7 | 0.00 | 0.00 | 0.00 | 52 | 1009.3 |
| 20260506014632 | 22 | 146 | 1.6 | 9.7 | 0.00 | 0.00 | 0.00 | 52 | 1009.2 |
| 20260506014531 | 22 | 181 | 1.6 | 9.7 | 0.00 | 0.00 | 0.00 | 52 | 1009.2 |
| 20260506014429 | 22 | 186 | 1.6 | 9.7 | 0.00 | 0.00 | 0.00 | 52 | 1009.2 |
| 20260506014330 | 22 | 170 | 1.6 | 9.7 | 0.00 | 0.00 | 0.00 | 51 | 1009.2 |
| 20260506014226 | 22 | 111 | 1.6 | 9.7 | 0.00 | 0.00 | 0.00 | 51 | 1009.2 |
| 20260506014126 | 22 | 196 | 1.6 | 9.7 | 0.00 | 0.00 | 0.00 | 51 | 1009.1 |
| 20260506014027 | 22 | 167 | 1.6 | 9.7 | 0.00 | 0.00 | 0.00 | 51 | 1009.1 |
| 20260506013927 | 22 | 167 | 1.6 | 9.7 | 0.00 | 0.00 | 0.00 | 51 | 1009.1 |
| 20260506013824 | 22 | 165 | 1.6 | 9.7 | 0.00 | 0.00 | 0.00 | 51 | 1009.1 |
| 20260506013725 | 22 | 146 | 1.6 | 9.7 | 0.00 | 0.00 | 0.00 | 50 | 1009.1 |
| 20260506013624 | 22 | 156 | 1.6 | 9.7 | 0.00 | 0.00 | 0.00 | 50 | 1009.2 |
| 20260506013524 | 22 | 157 | 1.6 | 9.7 | 0.00 | 0.00 | 0.00 | 50 | 1009.2 |
| 20260506013426 | 22 | 169 | 1.6 | 9.7 | 0.00 | 0.00 | 0.00 | 50 | 1009.2 |
| 20260506013324 | 22 | 179 | 1.6 | 9.7 | 0.00 | 0.00 | 0.00 | 50 | 1009.1 |
| 20260506013224 | 22 | 161 | 1.6 | 9.7 | 0.00 | 0.00 | 0.00 | 50 | 1009.1 |
| 20260506013127 | 22 | 151 | 1.6 | 4.8 | 0.00 | 0.00 | 0.00 | 50 | 1009.1 |
| 20260506013024 | 22 | 161 | 1.6 | 4.8 | 0.00 | 0.00 | 0.00 | 50 | 1009.1 |
| 20260506012925 | 22 | 171 | 1.6 | 4.8 | 0.00 | 0.00 | 0.00 | 50 | 1009.1 |
| 20260506012824 | 22 | 174 | 1.6 | 11.3 | 0.00 | 0.00 | 0.00 | 50 | 1009.1 |
| 20260506012725 | 23 | 131 | 1.6 | 11.3 | 0.00 | 0.00 | 0.00 | 50 | 1009.1 |
| 20260506012625 | 23 | 166 | 1.6 | 11.3 | 0.00 | 0.00 | 0.00 | 50 | 1009.1 |
| 20260506012520 | 23 | 166 | 1.6 | 11.3 | 0.00 | 0.00 | 0.00 | 49 | 1009.1 |
| 20260506012420 | 23 | 178 | 1.6 | 11.3 | 0.00 | 0.00 | 0.00 | 50 | 1009.0 |
| 20260506012322 | 23 | 178 | 1.6 | 11.3 | 0.00 | 0.00 | 0.00 | 49 | 1009.0 |
| 20260506012222 | 23 | 155 | 1.6 | 11.3 | 0.00 | 0.00 | 0.00 | 50 | 1009.0 |
| 20260506012134 | 23 | 155 | 1.6 | 11.3 | 0.00 | 0.00 | 0.00 | 49 | 1008.9 |
| 20260506011918 | 23 | 144 | 1.6 | 11.3 | 0.00 | 0.00 | 0.00 | 49 | 1008.9 |
| 20260506011816 | 23 | 135 | 1.6 | 4.8 | 0.00 | 0.00 | 0.00 | 49 | 1008.9 |
| 20260506011719 | 23 | 126 | 1.6 | 4.8 | 0.00 | 0.00 | 0.00 | 49 | 1008.8 |
| 20260506011614 | 23 | 118 | 1.6 | 4.8 | 0.00 | 0.00 | 0.00 | 49 | 1008.8 |
| 20260506011513 | 23 | 116 | 1.6 | 4.8 | 0.00 | 0.00 | 0.00 | 49 | 1008.9 |
| 20260506011413 | 23 | 157 | 1.6 | 4.8 | 0.00 | 0.00 | 0.00 | 49 | 1008.8 |
| 20260506011312 | 23 | 157 | 1.6 | 4.8 | 0.00 | 0.00 | 0.00 | 49 | 1008.8 |
| 20260506011215 | 23 | 180 | 1.6 | 4.8 | 0.00 | 0.00 | 0.00 | 49 | 1008.8 |
| 20260506011112 | 23 | 140 | 1.6 | 4.8 | 0.00 | 0.00 | 0.00 | 49 | 1008.9 |
| 20260506011010 | 23 | 178 | 1.6 | 4.8 | 0.00 | 0.00 | 0.00 | 49 | 1008.8 |
| 20260506010909 | 23 | 178 | 1.6 | 6.4 | 0.00 | 0.00 | 0.00 | 49 | 1008.8 |
| 20260506010809 | 23 | 179 | 1.6 | 6.4 | 0.00 | 0.00 | 0.00 | 49 | 1008.8 |
| 20260506010709 | 23 | 185 | 1.6 | 6.4 | 0.00 | 0.00 | 0.00 | 49 | 1008.8 |
| 20260506010609 | 23 | 120 | 1.6 | 6.4 | 0.00 | 0.00 | 0.00 | 49 | 1008.8 |
| 20260506010509 | 23 | 86 | 1.6 | 6.4 | 0.00 | 0.00 | 0.00 | 49 | 1008.8 |
| 20260506010408 | 23 | 182 | 1.6 | 6.4 | 0.00 | 0.00 | 0.00 | 49 | 1008.8 |
| 20260506010323 | 23 | 160 | 1.6 | 6.4 | 0.00 | 0.00 | 0.00 | 49 | 1008.8 |
| 20260506010123 | 23 | 141 | 1.6 | 6.4 | 0.00 | 0.00 | 0.00 | 49 | 1008.7 |
| 20260506005904 | 23 | 171 | 1.6 | 6.4 | 0.00 | 0.00 | 0.00 | 48 | 1008.8 |
| 20260506005807 | 23 | 190 | 0.0 | 6.4 | 0.00 | 0.00 | 0.00 | 48 | 1008.8 |
| 20260506005703 | 23 | 225 | 0.0 | 6.4 | 0.00 | 0.00 | 0.00 | 48 | 1008.8 |
| 20260506005603 | 23 | 146 | 0.0 | 12.9 | 0.00 | 0.00 | 0.00 | 48 | 1008.7 |
| 20260506005503 | 23 | 146 | 1.6 | 12.9 | 0.00 | 0.00 | 0.00 | 48 | 1008.7 |
| 20260506005404 | 23 | 134 | 0.0 | 12.9 | 0.00 | 0.00 | 0.00 | 48 | 1008.7 |
| 20260506005305 | 23 | 134 | 1.6 | 12.9 | 0.00 | 0.00 | 0.00 | 48 | 1008.7 |
| 20260506005202 | 23 | 137 | 1.6 | 12.9 | 0.00 | 0.00 | 0.00 | 48 | 1008.6 |
| 20260506005104 | 23 | 137 | 1.6 | 12.9 | 0.00 | 0.00 | 0.00 | 48 | 1008.7 |
| 20260506005002 | 23 | 132 | 1.6 | 12.9 | 0.00 | 0.00 | 0.00 | 48 | 1008.7 |
| 20260506004902 | 23 | 132 | 1.6 | 12.9 | 0.00 | 0.00 | 0.00 | 48 | 1008.7 |
| 20260506004831 | 23 | 134 | 1.6 | 12.9 | 0.00 | 0.00 | 0.00 | 48 | 1008.6 |
| 20260506004459 | 23 | 150 | 1.6 | 11.3 | 0.00 | 0.00 | 0.00 | 47 | 1008.6 |
| 20260506004357 | 23 | 192 | 1.6 | 11.3 | 0.00 | 0.00 | 0.00 | 47 | 1008.6 |
| 20260506004256 | 23 | 209 | 1.6 | 11.3 | 0.00 | 0.00 | 0.00 | 47 | 1008.5 |
| 20260506004155 | 23 | 209 | 1.6 | 11.3 | 0.00 | 0.00 | 0.00 | 47 | 1008.6 |
| 20260506004126 | 23 | 225 | 1.6 | 19.3 | 0.00 | 0.00 | 0.00 | 47 | 1008.5 |
| 20260506003756 | 23 | 153 | 1.6 | 19.3 | 0.00 | 0.00 | 0.00 | 47 | 1008.5 |
| 20260506003726 | 23 | 188 | 1.6 | 19.3 | 0.00 | 0.00 | 0.00 | 47 | 1008.6 |
| 20260506003353 | 23 | 190 | 1.6 | 19.3 | 0.00 | 0.00 | 0.00 | 46 | 1008.5 |
| 20260506003253 | 23 | 136 | 1.6 | 19.3 | 0.00 | 0.00 | 0.00 | 46 | 1008.5 |
| 20260506003150 | 23 | 189 | 1.6 | 19.3 | 0.00 | 0.00 | 0.00 | 46 | 1008.5 |
| 20260506003051 | 23 | 147 | 1.6 | 11.3 | 0.00 | 0.00 | 0.00 | 46 | 1008.4 |
| 20260506002951 | 23 | 147 | 3.2 | 11.3 | 0.00 | 0.00 | 0.00 | 46 | 1008.4 |
| 20260506002851 | 23 | 162 | 3.2 | 12.9 | 0.00 | 0.00 | 0.00 | 46 | 1008.4 |
| 20260506002752 | 23 | 148 | 1.6 | 12.9 | 0.00 | 0.00 | 0.00 | 46 | 1008.4 |
| 20260506002652 | 23 | 167 | 1.6 | 12.9 | 0.00 | 0.00 | 0.00 | 46 | 1008.4 |
| 20260506002553 | 23 | 185 | 1.6 | 12.9 | 0.00 | 0.00 | 0.00 | 45 | 1008.4 |
| 20260506002507 | 23 | 117 | 1.6 | 14.5 | 0.00 | 0.00 | 0.00 | 45 | 1008.4 |
| 20260506002249 | 24 | 124 | 1.6 | 14.5 | 0.00 | 0.00 | 0.00 | 45 | 1008.4 |
| 20260506002148 | 23 | 146 | 1.6 | 14.5 | 0.00 | 0.00 | 0.00 | 45 | 1008.4 |
| 20260506002049 | 23 | 127 | 1.6 | 14.5 | 0.00 | 0.00 | 0.00 | 45 | 1008.4 |
| 20260506001951 | 24 | 151 | 1.6 | 14.5 | 0.00 | 0.00 | 0.00 | 45 | 1008.4 |
| 20260506001850 | 24 | 213 | 1.6 | 14.5 | 0.00 | 0.00 | 0.00 | 45 | 1008.3 |
| 20260506001748 | 24 | 188 | 1.6 | 16.1 | 0.00 | 0.00 | 0.00 | 45 | 1008.3 |
| 20260506001650 | 24 | 188 | 1.6 | 16.1 | 0.00 | 0.00 | 0.00 | 45 | 1008.3 |
| 20260506001550 | 24 | 188 | 1.6 | 16.1 | 0.00 | 0.00 | 0.00 | 45 | 1008.3 |
| 20260506001449 | 24 | 74 | 1.6 | 16.1 | 0.00 | 0.00 | 0.00 | 44 | 1008.3 |
| 20260506001403 | 24 | 74 | 1.6 | 16.1 | 0.00 | 0.00 | 0.00 | 44 | 1008.2 |
| 20260506001146 | 24 | 69 | 1.6 | 16.1 | 0.00 | 0.00 | 0.00 | 44 | 1008.3 |
| 20260506001045 | 24 | 342 | 1.6 | 16.1 | 0.00 | 0.00 | 0.00 | 44 | 1008.2 |
| 20260506000944 | 24 | 338 | 1.6 | 16.1 | 0.00 | 0.00 | 0.00 | 44 | 1008.2 |
| 20260506000845 | 24 | 115 | 1.6 | 16.1 | 0.00 | 0.00 | 0.00 | 44 | 1008.2 |
| 20260506000759 | 24 | 128 | 1.6 | 9.7 | 0.00 | 0.00 | 0.00 | 43 | 1008.2 |
| 20260506000542 | 24 | 172 | 1.6 | 11.3 | 0.00 | 0.00 | 0.00 | 43 | 1008.2 |
| 20260506000455 | 24 | 144 | 1.6 | 11.3 | 0.00 | 0.00 | 0.00 | 43 | 1008.2 |
| 20260506000240 | 24 | 184 | 1.6 | 11.3 | 0.00 | 0.00 | 0.00 | 42 | 1008.1 |
| 20260506000139 | 24 | 166 | 3.2 | 11.3 | 0.00 | 0.00 | 0.00 | 42 | 1008.2 |
| 20260506000036 | 24 | 166 | 1.6 | 11.3 | 0.00 | 0.00 | 0.00 | 42 | 1008.2 |
| 20260505235937 | 24 | 145 | 1.6 | 11.3 | 0.00 | 0.00 | 0.00 | 42 | 1008.2 |
| 20260505235836 | 24 | 199 | 1.6 | 11.3 | 0.00 | 0.00 | 0.00 | 42 | 1008.2 |
| 20260505235737 | 24 | 201 | 1.6 | 11.3 | 0.00 | 0.00 | 0.00 | 42 | 1008.2 |
| 20260505235632 | 24 | 107 | 1.6 | 11.3 | 0.00 | 0.00 | 0.00 | 42 | 1008.2 |
| 20260505235532 | 24 | 159 | 1.6 | 9.7 | 0.00 | 0.00 | 0.00 | 42 | 1008.2 |
| 20260505235433 | 24 | 147 | 1.6 | 9.7 | 0.00 | 0.00 | 0.00 | 42 | 1008.2 |
| 20260505235334 | 24 | 140 | 1.6 | 9.7 | 0.00 | 0.00 | 0.00 | 41 | 1008.2 |
| 20260505235231 | 24 | 175 | 1.6 | 9.7 | 0.00 | 0.00 | 0.00 | 41 | 1008.2 |
| 20260505235145 | 24 | 175 | 1.6 | 9.7 | 0.00 | 0.00 | 0.00 | 41 | 1008.2 |
| 20260505234928 | 25 | 175 | 1.6 | 9.7 | 0.00 | 0.00 | 0.00 | 41 | 1008.1 |
| 20260505234829 | 25 | 180 | 1.6 | 9.7 | 0.00 | 0.00 | 0.00 | 41 | 1008.1 |
| 20260505234728 | 25 | 132 | 1.6 | 9.7 | 0.00 | 0.00 | 0.00 | 41 | 1008.1 |
| 20260505234642 | 25 | 133 | 1.6 | 9.7 | 0.00 | 0.00 | 0.00 | 41 | 1008.0 |
| 20260505234424 | 25 | 131 | 1.6 | 9.7 | 0.00 | 0.00 | 0.00 | 41 | 1008.1 |
| 20260505234355 | 25 | 123 | 1.6 | 9.7 | 0.00 | 0.00 | 0.00 | 40 | 1008.0 |
| 20260505234021 | 25 | 204 | 1.6 | 9.7 | 0.00 | 0.00 | 0.00 | 40 | 1008.0 |
| 20260505233921 | 25 | 117 | 1.6 | 9.7 | 0.00 | 0.00 | 0.00 | 40 | 1008.0 |
| 20260505233821 | 25 | 115 | 1.6 | 9.7 | 0.00 | 0.00 | 0.00 | 40 | 1008.0 |
| 20260505233718 | 25 | 209 | 1.6 | 8.0 | 0.00 | 0.00 | 0.00 | 40 | 1008.0 |
| 20260505233618 | 25 | 209 | 1.6 | 8.0 | 0.00 | 0.00 | 0.00 | 40 | 1008.0 |
| 20260505233516 | 25 | 209 | 1.6 | 8.0 | 0.00 | 0.00 | 0.00 | 40 | 1008.0 |
| 20260505233416 | 25 | 90 | 1.6 | 6.4 | 0.00 | 0.00 | 0.00 | 40 | 1008.0 |
| 20260505233331 | 25 | 244 | 1.6 | 6.4 | 0.00 | 0.00 | 0.00 | 40 | 1008.0 |
| 20260505233117 | 25 | 153 | 1.6 | 8.0 | 0.00 | 0.00 | 0.00 | 40 | 1008.0 |
| 20260505233044 | 25 | 153 | 1.6 | 8.0 | 0.00 | 0.00 | 0.00 | 40 | 1008.0 |
| 20260505232712 | 25 | 173 | 3.2 | 12.9 | 0.00 | 0.00 | 0.00 | 40 | 1007.9 |
| 20260505232610 | 25 | 115 | 3.2 | 12.9 | 0.00 | 0.00 | 0.00 | 40 | 1007.9 |
| 20260505232510 | 25 | 205 | 3.2 | 12.9 | 0.00 | 0.00 | 0.00 | 40 | 1007.9 |
| 20260505232411 | 25 | 205 | 3.2 | 12.9 | 0.00 | 0.00 | 0.00 | 39 | 1007.9 |
| 20260505232311 | 25 | 207 | 3.2 | 12.9 | 0.00 | 0.00 | 0.00 | 39 | 1007.9 |
| 20260505232210 | 25 | 88 | 3.2 | 12.9 | 0.00 | 0.00 | 0.00 | 39 | 1007.9 |
| 20260505232128 | 25 | 132 | 3.2 | 12.9 | 0.00 | 0.00 | 0.00 | 39 | 1007.8 |
| 20260505231908 | 25 | 215 | 3.2 | 11.3 | 0.00 | 0.00 | 0.00 | 39 | 1007.8 |
| 20260505231824 | 25 | 228 | 3.2 | 8.0 | 0.00 | 0.00 | 0.00 | 39 | 1007.8 |
| 20260505231606 | 25 | 233 | 1.6 | 6.4 | 0.00 | 0.00 | 0.00 | 39 | 1007.8 |
| 20260505231504 | 25 | 234 | 1.6 | 8.0 | 0.00 | 0.00 | 0.00 | 39 | 1007.9 |
| 20260505231404 | 25 | 184 | 1.6 | 8.0 | 0.00 | 0.00 | 0.00 | 39 | 1007.8 |
| 20260505231304 | 25 | 171 | 1.6 | 8.0 | 0.00 | 0.00 | 0.00 | 39 | 1007.8 |
| 20260505231205 | 25 | 165 | 1.6 | 8.0 | 0.00 | 0.00 | 0.00 | 39 | 1007.9 |
| 20260505231104 | 25 | 194 | 1.6 | 8.0 | 0.00 | 0.00 | 0.00 | 38 | 1007.8 |
| 20260505231005 | 25 | 192 | 1.6 | 8.0 | 0.00 | 0.00 | 0.00 | 39 | 1007.8 |
| 20260505230905 | 25 | 197 | 1.6 | 8.0 | 0.00 | 0.00 | 0.00 | 38 | 1007.8 |
| 20260505230802 | 25 | 197 | 1.6 | 14.5 | 0.00 | 0.00 | 0.00 | 38 | 1007.8 |
| 20260505230702 | 25 | 196 | 1.6 | 14.5 | 0.00 | 0.00 | 0.00 | 38 | 1007.8 |
| 20260505230601 | 25 | 192 | 1.6 | 14.5 | 0.00 | 0.00 | 0.00 | 38 | 1007.7 |
| 20260505230501 | 25 | 190 | 1.6 | 14.5 | 0.00 | 0.00 | 0.00 | 38 | 1007.7 |
| 20260505230400 | 25 | 162 | 1.6 | 14.5 | 0.00 | 0.00 | 0.00 | 39 | 1007.7 |
| 20260505230301 | 25 | 210 | 1.6 | 14.5 | 0.00 | 0.00 | 0.00 | 38 | 1007.7 |
| 20260505230216 | 25 | 184 | 1.6 | 14.5 | 0.00 | 0.00 | 0.00 | 38 | 1007.7 |
| 20260505230000 | 25 | 248 | 1.6 | 14.5 | 0.00 | 0.00 | 0.00 | 39 | 1007.6 |
| 20260505225900 | 25 | 209 | 1.6 | 14.5 | 0.00 | 0.00 | 0.00 | 38 | 1007.7 |
| 20260505225759 | 25 | 126 | 1.6 | 6.4 | 0.00 | 0.00 | 0.00 | 38 | 1007.7 |
| 20260505225700 | 25 | 126 | 1.6 | 8.0 | 0.00 | 0.00 | 0.00 | 38 | 1007.6 |
| 20260505225558 | 25 | 135 | 1.6 | 8.0 | 0.00 | 0.00 | 0.00 | 38 | 1007.6 |
| 20260505225459 | 25 | 135 | 1.6 | 8.0 | 0.00 | 0.00 | 0.00 | 39 | 1007.6 |
| 20260505225358 | 25 | 136 | 1.6 | 8.0 | 0.00 | 0.00 | 0.00 | 38 | 1007.5 |
| 20260505225259 | 25 | 135 | 1.6 | 8.0 | 0.00 | 0.00 | 0.00 | 38 | 1007.5 |
| 20260505225158 | 25 | 159 | 1.6 | 8.0 | 0.00 | 0.00 | 0.00 | 38 | 1007.5 |
| 20260505225058 | 25 | 165 | 1.6 | 8.0 | 0.00 | 0.00 | 0.00 | 38 | 1007.5 |
| 20260505225014 | 25 | 234 | 1.6 | 8.0 | 0.00 | 0.00 | 0.00 | 37 | 1007.5 |
| 20260505224759 | 25 | 160 | 1.6 | 8.0 | 0.00 | 0.00 | 0.00 | 37 | 1007.5 |
| 20260505224714 | 25 | 243 | 1.6 | 8.0 | 0.00 | 0.00 | 0.00 | 37 | 1007.4 |
| 20260505224458 | 25 | 183 | 1.6 | 8.0 | 0.00 | 0.00 | 0.00 | 37 | 1007.4 |
| 20260505224357 | 25 | 251 | 1.6 | 12.9 | 0.00 | 0.00 | 0.00 | 37 | 1007.4 |
| 20260505224257 | 25 | 251 | 1.6 | 16.1 | 0.00 | 0.00 | 0.00 | 38 | 1007.4 |
| 20260505224209 | 25 | 166 | 1.6 | 16.1 | 0.00 | 0.00 | 0.00 | 37 | 1007.4 |
| 20260505223952 | 26 | 191 | 1.6 | 16.1 | 0.00 | 0.00 | 0.00 | 37 | 1007.4 |
| 20260505223853 | 26 | 191 | 1.6 | 16.1 | 0.00 | 0.00 | 0.00 | 37 | 1007.4 |
| 20260505223753 | 26 | 88 | 1.6 | 16.1 | 0.00 | 0.00 | 0.00 | 37 | 1007.4 |
| 20260505223654 | 26 | 135 | 1.6 | 16.1 | 0.00 | 0.00 | 0.00 | 37 | 1007.5 |
| 20260505223554 | 26 | 135 | 1.6 | 16.1 | 0.00 | 0.00 | 0.00 | 37 | 1007.4 |
| 20260505223452 | 26 | 135 | 1.6 | 16.1 | 0.00 | 0.00 | 0.00 | 37 | 1007.3 |
| 20260505223353 | 26 | 122 | 1.6 | 16.1 | 0.00 | 0.00 | 0.00 | 37 | 1007.4 |
| 20260505223252 | 26 | 169 | 1.6 | 8.0 | 0.00 | 0.00 | 0.00 | 37 | 1007.4 |
| 20260505223152 | 26 | 161 | 1.6 | 6.4 | 0.00 | 0.00 | 0.00 | 37 | 1007.4 |
| 20260505223108 | 26 | 161 | 1.6 | 8.0 | 0.00 | 0.00 | 0.00 | 37 | 1007.4 |
| 20260505222853 | 26 | 190 | 1.6 | 8.0 | 0.00 | 0.00 | 0.00 | 36 | 1007.4 |
| 20260505222752 | 26 | 197 | 1.6 | 8.0 | 0.00 | 0.00 | 0.00 | 37 | 1007.4 |
| 20260505222652 | 26 | 197 | 1.6 | 8.0 | 0.00 | 0.00 | 0.00 | 37 | 1007.4 |
| 20260505222552 | 26 | 137 | 1.6 | 8.0 | 0.00 | 0.00 | 0.00 | 36 | 1007.4 |
| 20260505222450 | 26 | 172 | 3.2 | 8.0 | 0.00 | 0.00 | 0.00 | 36 | 1007.4 |
| 20260505222348 | 26 | 133 | 3.2 | 8.0 | 0.00 | 0.00 | 0.00 | 36 | 1007.4 |
| 20260505222249 | 26 | 211 | 3.2 | 8.0 | 0.00 | 0.00 | 0.00 | 36 | 1007.4 |
| 20260505222150 | 26 | 107 | 3.2 | 8.0 | 0.00 | 0.00 | 0.00 | 36 | 1007.4 |
| 20260505222048 | 26 | 221 | 3.2 | 8.0 | 0.00 | 0.00 | 0.00 | 36 | 1007.4 |
| 20260505221949 | 26 | 208 | 3.2 | 8.0 | 0.00 | 0.00 | 0.00 | 35 | 1007.4 |
| 20260505221847 | 26 | 208 | 3.2 | 14.5 | 0.00 | 0.00 | 0.00 | 35 | 1007.4 |
| 20260505221749 | 26 | 164 | 4.8 | 14.5 | 0.00 | 0.00 | 0.00 | 36 | 1007.4 |
| 20260505221705 | 26 | 210 | 3.2 | 14.5 | 0.00 | 0.00 | 0.00 | 36 | 1007.4 |
| 20260505221448 | 26 | 205 | 4.8 | 14.5 | 0.00 | 0.00 | 0.00 | 35 | 1007.4 |
| 20260505221404 | 26 | 232 | 3.2 | 16.1 | 0.00 | 0.00 | 0.00 | 35 | 1007.4 |
| 20260505221145 | 26 | 123 | 3.2 | 16.1 | 0.00 | 0.00 | 0.00 | 35 | 1007.5 |
| 20260505221047 | 26 | 146 | 3.2 | 16.1 | 0.00 | 0.00 | 0.00 | 35 | 1007.4 |
| 20260505220946 | 26 | 217 | 3.2 | 16.1 | 0.00 | 0.00 | 0.00 | 36 | 1007.4 |
| 20260505220847 | 26 | 139 | 3.2 | 16.1 | 0.00 | 0.00 | 0.00 | 35 | 1007.3 |
| 20260505220746 | 26 | 138 | 3.2 | 16.1 | 0.00 | 0.00 | 0.00 | 35 | 1007.4 |
| 20260505220645 | 26 | 100 | 3.2 | 16.1 | 0.00 | 0.00 | 0.00 | 35 | 1007.4 |
| 20260505220544 | 26 | 225 | 3.2 | 16.1 | 0.00 | 0.00 | 0.00 | 34 | 1007.4 |
| 20260505220445 | 26 | 225 | 3.2 | 16.1 | 0.00 | 0.00 | 0.00 | 35 | 1007.3 |
| 20260505220430 | 26 | 219 | 3.2 | 11.3 | 0.00 | 0.00 | 0.00 | 35 | 1007.5 |
| 20260505215959 | 26 | 219 | 3.2 | 12.9 | 0.00 | 0.00 | 0.00 | 34 | 1007.4 |
| 20260505215742 | 26 | 202 | 3.2 | 12.9 | 0.00 | 0.00 | 0.00 | 35 | 1007.3 |
| 20260505215638 | 26 | 157 | 3.2 | 12.9 | 0.00 | 0.00 | 0.00 | 35 | 1007.3 |
| 20260505215538 | 26 | 156 | 3.2 | 12.9 | 0.00 | 0.00 | 0.00 | 35 | 1007.4 |
| 20260505215439 | 26 | 108 | 3.2 | 12.9 | 0.00 | 0.00 | 0.00 | 35 | 1007.3 |
| 20260505215337 | 26 | 121 | 3.2 | 12.9 | 0.00 | 0.00 | 0.00 | 35 | 1007.3 |
| 20260505215239 | 26 | 182 | 3.2 | 16.1 | 0.00 | 0.00 | 0.00 | 35 | 1007.3 |
| 20260505215155 | 26 | 172 | 3.2 | 16.1 | 0.00 | 0.00 | 0.00 | 36 | 1007.3 |
| 20260505214938 | 26 | 239 | 4.8 | 16.1 | 0.00 | 0.00 | 0.00 | 35 | 1007.3 |
| 20260505214839 | 26 | 186 | 4.8 | 17.7 | 0.00 | 0.00 | 0.00 | 35 | 1007.3 |
| 20260505214738 | 26 | 189 | 4.8 | 17.7 | 0.00 | 0.00 | 0.00 | 35 | 1007.3 |
| 20260505214637 | 26 | 239 | 4.8 | 17.7 | 0.00 | 0.00 | 0.00 | 35 | 1007.3 |
| 20260505214540 | 26 | 302 | 4.8 | 17.7 | 0.00 | 0.00 | 0.00 | 35 | 1007.3 |
| 20260505214439 | 26 | 234 | 4.8 | 17.7 | 0.00 | 0.00 | 0.00 | 35 | 1007.3 |
| 20260505214339 | 26 | 233 | 4.8 | 17.7 | 0.00 | 0.00 | 0.00 | 35 | 1007.2 |
| 20260505214238 | 26 | 236 | 4.8 | 17.7 | 0.00 | 0.00 | 0.00 | 35 | 1007.3 |
| 20260505214139 | 26 | 247 | 4.8 | 17.7 | 0.00 | 0.00 | 0.00 | 35 | 1007.4 |
| 20260505214038 | 26 | 248 | 4.8 | 17.7 | 0.00 | 0.00 | 0.00 | 35 | 1007.2 |
| 20260505213938 | 26 | 227 | 4.8 | 17.7 | 0.00 | 0.00 | 0.00 | 35 | 1007.4 |
| 20260505213838 | 26 | 224 | 3.2 | 14.5 | 0.00 | 0.00 | 0.00 | 34 | 1007.0 |
| 20260505213738 | 26 | 223 | 3.2 | 12.9 | 0.00 | 0.00 | 0.00 | 36 | 1007.0 |
| 20260505213639 | 26 | 245 | 3.2 | 11.3 | 0.00 | 0.00 | 0.00 | 36 | 1007.2 |
| 20260505213538 | 26 | 250 | 3.2 | 11.3 | 0.00 | 0.00 | 0.00 | 35 | 1007.0 |
| 20260505213439 | 26 | 240 | 1.6 | 11.3 | 0.00 | 0.00 | 0.00 | 36 | 1007.0 |
| 20260505213338 | 26 | 244 | 1.6 | 11.3 | 0.00 | 0.00 | 0.00 | 36 | 1007.0 |
| 20260505213239 | 26 | 188 | 1.6 | 11.3 | 0.00 | 0.00 | 0.00 | 36 | 1007.0 |
| 20260505213153 | 26 | 191 | 1.6 | 4.8 | 0.00 | 0.00 | 0.00 | 35 | 1007.2 |
| 20260505212939 | 26 | 148 | 1.6 | 4.8 | 0.00 | 0.00 | 0.00 | 35 | 1007.0 |
| 20260505212838 | 26 | 195 | 1.6 | 4.8 | 0.00 | 0.00 | 0.00 | 36 | 1007.0 |
| 20260505212737 | 26 | 181 | 1.6 | 4.8 | 0.00 | 0.00 | 0.00 | 37 | 1007.0 |
| 20260505212638 | 26 | 182 | 1.6 | 4.8 | 0.00 | 0.00 | 0.00 | 36 | 1007.0 |
| 20260505212538 | 26 | 183 | 1.6 | 11.3 | 0.00 | 0.00 | 0.00 | 37 | 1007.0 |
| 20260505212454 | 26 | 183 | 1.6 | 11.3 | 0.00 | 0.00 | 0.00 | 36 | 1006.9 |
| 20260505212238 | 26 | 205 | 3.2 | 11.3 | 0.00 | 0.00 | 0.00 | 36 | 1006.9 |
| 20260505212138 | 26 | 185 | 3.2 | 17.7 | 0.00 | 0.00 | 0.00 | 36 | 1006.9 |
| 20260505212039 | 26 | 185 | 3.2 | 17.7 | 0.00 | 0.00 | 0.00 | 35 | 1006.8 |
| 20260505211938 | 26 | 185 | 3.2 | 17.7 | 0.00 | 0.00 | 0.00 | 34 | 1006.8 |
| 20260505211837 | 26 | 217 | 4.8 | 17.7 | 0.00 | 0.00 | 0.00 | 34 | 1006.8 |
| 20260505211738 | 26 | 238 | 4.8 | 17.7 | 0.00 | 0.00 | 0.00 | 34 | 1006.9 |
| 20260505211638 | 26 | 238 | 4.8 | 17.7 | 0.00 | 0.00 | 0.00 | 33 | 1006.8 |
| 20260505211555 | 26 | 243 | 3.2 | 17.7 | 0.00 | 0.00 | 0.00 | 33 | 1006.8 |
| 20260505211339 | 27 | 219 | 3.2 | 17.7 | 0.00 | 0.00 | 0.00 | 33 | 1006.7 |
| 20260505211237 | 27 | 210 | 3.2 | 17.7 | 0.00 | 0.00 | 0.00 | 32 | 1006.6 |
| 20260505211139 | 27 | 221 | 3.2 | 16.1 | 0.00 | 0.00 | 0.00 | 34 | 1006.7 |
| 20260505211039 | 27 | 246 | 3.2 | 9.7 | 0.00 | 0.00 | 0.00 | 34 | 1006.9 |
| 20260505210938 | 27 | 147 | 3.2 | 9.7 | 0.00 | 0.00 | 0.00 | 35 | 1006.9 |
| 20260505210838 | 27 | 222 | 3.2 | 9.7 | 0.00 | 0.00 | 0.00 | 36 | 1006.9 |
| 20260505210756 | 27 | 222 | 3.2 | 14.5 | 0.00 | 0.00 | 0.00 | 35 | 1006.8 |
| 20260505210539 | 27 | 202 | 3.2 | 14.5 | 0.00 | 0.00 | 0.00 | 35 | 1006.8 |
| 20260505210438 | 27 | 202 | 4.8 | 14.5 | 0.00 | 0.00 | 0.00 | 35 | 1006.8 |
| 20260505210340 | 27 | 202 | 4.8 | 14.5 | 0.00 | 0.00 | 0.00 | 36 | 1006.7 |
| 20260505210240 | 27 | 192 | 4.8 | 14.5 | 0.00 | 0.00 | 0.00 | 35 | 1006.8 |
| 20260505210139 | 27 | 221 | 4.8 | 14.5 | 0.00 | 0.00 | 0.00 | 36 | 1006.7 |
| 20260505210039 | 27 | 219 | 4.8 | 14.5 | 0.00 | 0.00 | 0.00 | 35 | 1006.8 |
| 20260505205938 | 27 | 218 | 4.8 | 14.5 | 0.00 | 0.00 | 0.00 | 35 | 1006.8 |
| 20260505205838 | 27 | 203 | 4.8 | 22.5 | 0.00 | 0.00 | 0.00 | 35 | 1006.8 |
| 20260505205737 | 27 | 229 | 4.8 | 22.5 | 0.00 | 0.00 | 0.00 | 35 | 1006.7 |
| 20260505205654 | 27 | 232 | 4.8 | 22.5 | 0.00 | 0.00 | 0.00 | 36 | 1006.8 |
| 20260505205439 | 27 | 228 | 4.8 | 22.5 | 0.00 | 0.00 | 0.00 | 36 | 1006.7 |
| 20260505205339 | 27 | 247 | 4.8 | 22.5 | 0.00 | 0.00 | 0.00 | 35 | 1006.7 |
| 20260505205239 | 27 | 200 | 4.8 | 22.5 | 0.00 | 0.00 | 0.00 | 35 | 1006.6 |
| 20260505205137 | 27 | 134 | 4.8 | 22.5 | 0.00 | 0.00 | 0.00 | 34 | 1006.7 |
| 20260505205038 | 27 | 153 | 4.8 | 22.5 | 0.00 | 0.00 | 0.00 | 36 | 1006.8 |
| 20260505204939 | 27 | 221 | 4.8 | 22.5 | 0.00 | 0.00 | 0.00 | 36 | 1006.7 |
| 20260505204840 | 27 | 118 | 4.8 | 20.9 | 0.00 | 0.00 | 0.00 | 35 | 1006.7 |
| 20260505204754 | 27 | 187 | 4.8 | 20.9 | 0.00 | 0.00 | 0.00 | 35 | 1006.8 |
| 20260505204538 | 27 | 199 | 4.8 | 20.9 | 0.00 | 0.00 | 0.00 | 35 | 1006.9 |
| 20260505204510 | 27 | 163 | 4.8 | 20.9 | 0.00 | 0.00 | 0.00 | 35 | 1006.9 |
| 20260505204139 | 27 | 238 | 4.8 | 20.9 | 0.00 | 0.00 | 0.00 | 36 | 1006.8 |
| 20260505204040 | 27 | 234 | 4.8 | 20.9 | 0.00 | 0.00 | 0.00 | 36 | 1006.8 |
| 20260505203937 | 27 | 233 | 4.8 | 20.9 | 0.00 | 0.00 | 0.00 | 35 | 1006.9 |
| 20260505203839 | 27 | 200 | 4.8 | 20.9 | 0.00 | 0.00 | 0.00 | 36 | 1006.8 |
| 20260505203742 | 27 | 132 | 4.8 | 20.9 | 0.00 | 0.00 | 0.00 | 34 | 1006.8 |
| 20260505203727 | 27 | 246 | 4.8 | 20.9 | 0.00 | 0.00 | 0.00 | 35 | 1006.9 |
| 20260505203239 | 27 | 236 | 4.8 | 17.7 | 0.00 | 0.00 | 0.00 | 35 | 1006.9 |
| 20260505203138 | 27 | 236 | 4.8 | 17.7 | 0.00 | 0.00 | 0.00 | 35 | 1006.8 |
| 20260505203038 | 27 | 147 | 4.8 | 17.7 | 0.00 | 0.00 | 0.00 | 35 | 1006.7 |
| 20260505202939 | 27 | 196 | 3.2 | 17.7 | 0.00 | 0.00 | 0.00 | 35 | 1006.8 |
| 20260505202839 | 27 | 197 | 3.2 | 17.7 | 0.00 | 0.00 | 0.00 | 35 | 1006.8 |
| 20260505202737 | 27 | 150 | 3.2 | 17.7 | 0.00 | 0.00 | 0.00 | 34 | 1006.9 |
| 20260505202639 | 27 | 117 | 3.2 | 17.7 | 0.00 | 0.00 | 0.00 | 34 | 1006.8 |
| 20260505202539 | 27 | 124 | 3.2 | 17.7 | 0.00 | 0.00 | 0.00 | 34 | 1006.9 |
| 20260505202440 | 27 | 123 | 3.2 | 17.7 | 0.00 | 0.00 | 0.00 | 35 | 1006.8 |
| 20260505202337 | 27 | 213 | 3.2 | 17.7 | 0.00 | 0.00 | 0.00 | 35 | 1007.0 |
| 20260505202239 | 27 | 241 | 3.2 | 17.7 | 0.00 | 0.00 | 0.00 | 36 | 1006.9 |
| 20260505202137 | 27 | 138 | 3.2 | 17.7 | 0.00 | 0.00 | 0.00 | 35 | 1006.8 |
| 20260505202038 | 27 | 205 | 3.2 | 11.3 | 0.00 | 0.00 | 0.00 | 35 | 1007.0 |
| 20260505201938 | 27 | 125 | 3.2 | 11.3 | 0.00 | 0.00 | 0.00 | 36 | 1006.9 |
| 20260505201838 | 27 | 193 | 3.2 | 16.1 | 0.00 | 0.00 | 0.00 | 37 | 1006.9 |
| 20260505201737 | 27 | 187 | 3.2 | 16.1 | 0.00 | 0.00 | 0.00 | 37 | 1006.8 |
| 20260505201638 | 27 | 121 | 3.2 | 16.1 | 0.00 | 0.00 | 0.00 | 36 | 1006.9 |
| 20260505201539 | 27 | 221 | 4.8 | 22.5 | 0.00 | 0.00 | 0.00 | 37 | 1006.9 |
| 20260505201437 | 27 | 147 | 4.8 | 22.5 | 0.00 | 0.00 | 0.00 | 39 | 1007.0 |
| 20260505201339 | 27 | 182 | 4.8 | 22.5 | 0.00 | 0.00 | 0.00 | 37 | 1007.0 |
| 20260505201239 | 27 | 181 | 4.8 | 22.5 | 0.00 | 0.00 | 0.00 | 37 | 1007.0 |
| 20260505201155 | 27 | 202 | 4.8 | 22.5 | 0.00 | 0.00 | 0.00 | 37 | 1006.9 |
| 20260505200938 | 27 | 126 | 4.8 | 22.5 | 0.00 | 0.00 | 0.00 | 37 | 1006.9 |
| 20260505200839 | 27 | 137 | 4.8 | 22.5 | 0.00 | 0.00 | 0.00 | 37 | 1007.0 |
| 20260505200737 | 27 | 121 | 4.8 | 22.5 | 0.00 | 0.00 | 0.00 | 38 | 1007.0 |
| 20260505200639 | 27 | 148 | 4.8 | 22.5 | 0.00 | 0.00 | 0.00 | 37 | 1007.0 |
| 20260505200538 | 27 | 128 | 4.8 | 14.5 | 0.00 | 0.00 | 0.00 | 38 | 1007.0 |
| 20260505200439 | 27 | 169 | 4.8 | 14.5 | 0.00 | 0.00 | 0.00 | 38 | 1007.0 |
| 20260505200338 | 27 | 242 | 3.2 | 14.5 | 0.00 | 0.00 | 0.00 | 36 | 1007.0 |
| 20260505200237 | 27 | 234 | 3.2 | 14.5 | 0.00 | 0.00 | 0.00 | 37 | 1007.2 |
| 20260505200155 | 27 | 202 | 3.2 | 11.3 | 0.00 | 0.00 | 0.00 | 37 | 1007.2 |
| 20260505195956 | 27 | 272 | 4.8 | 11.3 | 0.00 | 0.00 | 0.00 | 37 | 1007.2 |
| 20260505195737 | 27 | 225 | 4.8 | 24.1 | 0.00 | 0.00 | 0.00 | 38 | 1007.0 |
| 20260505195640 | 27 | 229 | 3.2 | 24.1 | 0.00 | 0.00 | 0.00 | 39 | 1007.2 |
| 20260505195538 | 27 | 191 | 4.8 | 24.1 | 0.00 | 0.00 | 0.00 | 38 | 1007.2 |
| 20260505195439 | 27 | 220 | 4.8 | 24.1 | 0.00 | 0.00 | 0.00 | 38 | 1007.2 |
| 20260505195338 | 27 | 233 | 4.8 | 24.1 | 0.00 | 0.00 | 0.00 | 37 | 1007.2 |
| 20260505195240 | 27 | 215 | 4.8 | 24.1 | 0.00 | 0.00 | 0.00 | 37 | 1007.3 |
| 20260505195139 | 27 | 198 | 4.8 | 24.1 | 0.00 | 0.00 | 0.00 | 37 | 1007.2 |
| 20260505195040 | 27 | 229 | 4.8 | 24.1 | 0.00 | 0.00 | 0.00 | 36 | 1007.2 |
| 20260505194953 | 27 | 119 | 3.2 | 24.1 | 0.00 | 0.00 | 0.00 | 37 | 1007.2 |
| 20260505194739 | 28 | 228 | 3.2 | 17.7 | 0.00 | 0.00 | 0.00 | 38 | 1007.2 |
| 20260505194638 | 28 | 225 | 3.2 | 17.7 | 0.00 | 0.00 | 0.00 | 37 | 1007.2 |
| 20260505194537 | 28 | 232 | 3.2 | 17.7 | 0.00 | 0.00 | 0.00 | 37 | 1007.0 |
| 20260505194438 | 28 | 173 | 3.2 | 16.1 | 0.00 | 0.00 | 0.00 | 37 | 1007.2 |
| 20260505194338 | 28 | 115 | 3.2 | 16.1 | 0.00 | 0.00 | 0.00 | 37 | 1007.2 |
| 20260505194237 | 28 | 205 | 3.2 | 14.5 | 0.00 | 0.00 | 0.00 | 38 | 1007.3 |
| 20260505194137 | 27 | 140 | 3.2 | 14.5 | 0.00 | 0.00 | 0.00 | 39 | 1007.3 |
| 20260505194038 | 27 | 105 | 3.2 | 14.5 | 0.00 | 0.00 | 0.00 | 38 | 1007.3 |
| 20260505193938 | 27 | 238 | 3.2 | 14.5 | 0.00 | 0.00 | 0.00 | 39 | 1007.3 |
| 20260505193839 | 27 | 199 | 3.2 | 14.5 | 0.00 | 0.00 | 0.00 | 39 | 1007.3 |
| 20260505193754 | 27 | 165 | 3.2 | 14.5 | 0.00 | 0.00 | 0.00 | 40 | 1007.2 |
| 20260505193538 | 27 | 177 | 3.2 | 14.5 | 0.00 | 0.00 | 0.00 | 38 | 1007.2 |
| 20260505193437 | 27 | 211 | 3.2 | 14.5 | 0.00 | 0.00 | 0.00 | 37 | 1007.2 |
| 20260505193340 | 27 | 214 | 3.2 | 14.5 | 0.00 | 0.00 | 0.00 | 37 | 1007.2 |
| 20260505193239 | 27 | 225 | 3.2 | 11.3 | 0.00 | 0.00 | 0.00 | 37 | 1007.3 |
| 20260505193138 | 27 | 216 | 3.2 | 16.1 | 0.00 | 0.00 | 0.00 | 37 | 1007.4 |
| 20260505193035 | 27 | 194 | 3.2 | 16.1 | 0.00 | 0.00 | 0.00 | 37 | 1007.4 |
| 20260505192933 | 27 | 229 | 4.8 | 16.1 | 0.00 | 0.00 | 0.00 | 37 | 1007.2 |
| 20260505192835 | 27 | 213 | 4.8 | 16.1 | 0.00 | 0.00 | 0.00 | 39 | 1007.4 |
| 20260505192733 | 27 | 137 | 4.8 | 16.1 | 0.00 | 0.00 | 0.00 | 39 | 1007.3 |
| 20260505192635 | 27 | 254 | 4.8 | 16.1 | 0.00 | 0.00 | 0.00 | 38 | 1007.5 |
| 20260505192536 | 27 | 178 | 4.8 | 16.1 | 0.00 | 0.00 | 0.00 | 37 | 1007.4 |
| 20260505192434 | 27 | 238 | 4.8 | 16.1 | 0.00 | 0.00 | 0.00 | 37 | 1007.4 |
| 20260505192335 | 27 | 157 | 4.8 | 16.1 | 0.00 | 0.00 | 0.00 | 37 | 1007.3 |
| 20260505192251 | 27 | 221 | 4.8 | 16.1 | 0.00 | 0.00 | 0.00 | 37 | 1007.4 |
| 20260505192036 | 27 | 247 | 4.8 | 16.1 | 0.00 | 0.00 | 0.00 | 37 | 1007.5 |
| 20260505191952 | 27 | 200 | 4.8 | 17.7 | 0.00 | 0.00 | 0.00 | 38 | 1007.3 |
| 20260505191735 | 27 | 240 | 4.8 | 17.7 | 0.00 | 0.00 | 0.00 | 37 | 1007.5 |
| 20260505191633 | 27 | 278 | 4.8 | 17.7 | 0.00 | 0.00 | 0.00 | 38 | 1007.5 |
| 20260505191535 | 27 | 234 | 4.8 | 17.7 | 0.00 | 0.00 | 0.00 | 39 | 1007.5 |
| 20260505191451 | 27 | 149 | 4.8 | 17.7 | 0.00 | 0.00 | 0.00 | 39 | 1007.5 |
| 20260505191234 | 27 | 205 | 6.4 | 19.3 | 0.00 | 0.00 | 0.00 | 37 | 1007.6 |
| 20260505191133 | 27 | 159 | 6.4 | 19.3 | 0.00 | 0.00 | 0.00 | 38 | 1007.5 |
| 20260505191034 | 27 | 218 | 6.4 | 19.3 | 0.00 | 0.00 | 0.00 | 36 | 1007.5 |
| 20260505190933 | 27 | 240 | 6.4 | 19.3 | 0.00 | 0.00 | 0.00 | 36 | 1007.6 |
| 20260505190833 | 27 | 233 | 6.4 | 19.3 | 0.00 | 0.00 | 0.00 | 35 | 1007.7 |
| 20260505190731 | 27 | 219 | 4.8 | 19.3 | 0.00 | 0.00 | 0.00 | 36 | 1007.8 |
| 20260505190629 | 27 | 213 | 4.8 | 19.3 | 0.00 | 0.00 | 0.00 | 35 | 1007.8 |
| 20260505190531 | 27 | 212 | 4.8 | 19.3 | 0.00 | 0.00 | 0.00 | 36 | 1007.8 |
| 20260505190431 | 27 | 222 | 6.4 | 19.3 | 0.00 | 0.00 | 0.00 | 35 | 1007.8 |
| 20260505190329 | 28 | 232 | 4.8 | 17.7 | 0.00 | 0.00 | 0.00 | 36 | 1007.7 |
| 20260505190232 | 28 | 225 | 4.8 | 14.5 | 0.00 | 0.00 | 0.00 | 38 | 1007.7 |
| 20260505190129 | 28 | 213 | 4.8 | 14.5 | 0.00 | 0.00 | 0.00 | 39 | 1007.7 |
| 20260505190030 | 27 | 130 | 4.8 | 14.5 | 0.00 | 0.00 | 0.00 | 38 | 1007.7 |
| 20260505185931 | 27 | 143 | 4.8 | 14.5 | 0.00 | 0.00 | 0.00 | 37 | 1007.7 |
| 20260505185844 | 28 | 196 | 4.8 | 14.5 | 0.00 | 0.00 | 0.00 | 38 | 1007.7 |
| 20260505185630 | 27 | 138 | 4.8 | 17.7 | 0.00 | 0.00 | 0.00 | 37 | 1007.7 |
| 20260505185548 | 27 | 176 | 4.8 | 17.7 | 0.00 | 0.00 | 0.00 | 37 | 1007.8 |
| 20260505185330 | 27 | 166 | 4.8 | 17.7 | 0.00 | 0.00 | 0.00 | 37 | 1007.7 |
| 20260505185230 | 28 | 213 | 3.2 | 17.7 | 0.00 | 0.00 | 0.00 | 38 | 1007.8 |
| 20260505185131 | 28 | 227 | 3.2 | 17.7 | 0.00 | 0.00 | 0.00 | 37 | 1007.8 |
| 20260505185033 | 28 | 216 | 3.2 | 17.7 | 0.00 | 0.00 | 0.00 | 38 | 1007.7 |
| 20260505185017 | 28 | 227 | 3.2 | 17.7 | 0.00 | 0.00 | 0.00 | 38 | 1007.9 |
| 20260505184522 | 28 | 214 | 3.2 | 24.1 | 0.00 | 0.00 | 0.00 | 39 | 1007.8 |
| 20260505184423 | 28 | 134 | 3.2 | 24.1 | 0.00 | 0.00 | 0.00 | 40 | 1007.8 |
| 20260505184322 | 28 | 201 | 3.2 | 24.1 | 0.00 | 0.00 | 0.00 | 40 | 1007.8 |
| 20260505184222 | 28 | 209 | 3.2 | 24.1 | 0.00 | 0.00 | 0.00 | 39 | 1007.9 |
| 20260505184122 | 28 | 209 | 3.2 | 24.1 | 0.00 | 0.00 | 0.00 | 40 | 1007.9 |
| 20260505184031 | 28 | 227 | 3.2 | 24.1 | 0.00 | 0.00 | 0.00 | 40 | 1007.7 |
| 20260505184014 | 27 | 217 | 3.2 | 24.1 | 0.00 | 0.00 | 0.00 | 39 | 1007.9 |
| 20260505183519 | 27 | 232 | 4.8 | 11.3 | 0.00 | 0.00 | 0.00 | 39 | 1008.0 |
| 20260505183420 | 27 | 232 | 4.8 | 12.9 | 0.00 | 0.00 | 0.00 | 39 | 1008.1 |
| 20260505183320 | 27 | 227 | 4.8 | 12.9 | 0.00 | 0.00 | 0.00 | 40 | 1008.0 |
| 20260505183238 | 27 | 186 | 4.8 | 12.9 | 0.00 | 0.00 | 0.00 | 40 | 1008.2 |
| 20260505183020 | 27 | 232 | 4.8 | 12.9 | 0.00 | 0.00 | 0.00 | 40 | 1008.1 |
| 20260505182917 | 27 | 140 | 3.2 | 12.9 | 0.00 | 0.00 | 0.00 | 40 | 1008.1 |
| 20260505182816 | 27 | 119 | 3.2 | 12.9 | 0.00 | 0.00 | 0.00 | 39 | 1008.1 |
| 20260505182717 | 27 | 224 | 3.2 | 12.9 | 0.00 | 0.00 | 0.00 | 40 | 1008.1 |
| 20260505182617 | 27 | 236 | 3.2 | 12.9 | 0.00 | 0.00 | 0.00 | 40 | 1008.1 |
| 20260505182518 | 27 | 248 | 3.2 | 12.9 | 0.00 | 0.00 | 0.00 | 39 | 1008.2 |
| 20260505182417 | 27 | 133 | 4.8 | 19.3 | 0.00 | 0.00 | 0.00 | 41 | 1008.2 |
| 20260505182315 | 27 | 199 | 3.2 | 19.3 | 0.00 | 0.00 | 0.00 | 41 | 1008.2 |
| 20260505182218 | 27 | 130 | 3.2 | 19.3 | 0.00 | 0.00 | 0.00 | 42 | 1008.1 |
| 20260505182116 | 27 | 112 | 4.8 | 19.3 | 0.00 | 0.00 | 0.00 | 41 | 1008.1 |
| 20260505182015 | 27 | 131 | 4.8 | 19.3 | 0.00 | 0.00 | 0.00 | 40 | 1008.1 |
| 20260505181917 | 27 | 140 | 4.8 | 19.3 | 0.00 | 0.00 | 0.00 | 40 | 1008.2 |
| 20260505181818 | 27 | 109 | 4.8 | 19.3 | 0.00 | 0.00 | 0.00 | 39 | 1008.2 |
| 20260505181734 | 27 | 225 | 4.8 | 19.3 | 0.00 | 0.00 | 0.00 | 39 | 1008.2 |
| 20260505181517 | 27 | 212 | 4.8 | 19.3 | 0.00 | 0.00 | 0.00 | 42 | 1008.2 |
| 20260505181413 | 27 | 111 | 4.8 | 19.3 | 0.00 | 0.00 | 0.00 | 41 | 1008.1 |
| 20260505181311 | 27 | 210 | 4.8 | 19.3 | 0.00 | 0.00 | 0.00 | 41 | 1008.1 |
| 20260505181223 | 27 | 205 | 4.8 | 19.3 | 0.00 | 0.00 | 0.00 | 41 | 1008.1 |
| 20260505181007 | 27 | 169 | 4.8 | 19.3 | 0.00 | 0.00 | 0.00 | 41 | 1008.1 |
| 20260505180908 | 27 | 98 | 4.8 | 19.3 | 0.00 | 0.00 | 0.00 | 41 | 1008.2 |
| 20260505180807 | 27 | 107 | 3.2 | 14.5 | 0.00 | 0.00 | 0.00 | 43 | 1008.2 |
| 20260505180709 | 27 | 117 | 4.8 | 14.5 | 0.00 | 0.00 | 0.00 | 42 | 1008.3 |
| 20260505180607 | 27 | 246 | 4.8 | 14.5 | 0.00 | 0.00 | 0.00 | 41 | 1008.2 |
| 20260505180507 | 27 | 214 | 4.8 | 27.4 | 0.00 | 0.00 | 0.00 | 40 | 1008.3 |
| 20260505180426 | 27 | 240 | 4.8 | 27.4 | 0.00 | 0.00 | 0.00 | 40 | 1008.1 |
| 20260505180207 | 28 | 240 | 4.8 | 27.4 | 0.00 | 0.00 | 0.00 | 39 | 1008.4 |
| 20260505180107 | 28 | 218 | 4.8 | 27.4 | 0.00 | 0.00 | 0.00 | 40 | 1008.3 |
| 20260505180007 | 28 | 167 | 3.2 | 27.4 | 0.00 | 0.00 | 0.00 | 40 | 1008.3 |
| 20260505175904 | 28 | 240 | 3.2 | 27.4 | 0.00 | 0.00 | 0.00 | 40 | 1008.2 |
| 20260505175805 | 28 | 190 | 3.2 | 27.4 | 0.00 | 0.00 | 0.00 | 40 | 1008.2 |
| 20260505175705 | 28 | 209 | 3.2 | 27.4 | 0.00 | 0.00 | 0.00 | 39 | 1008.4 |
| 20260505175604 | 28 | 219 | 3.2 | 27.4 | 0.00 | 0.00 | 0.00 | 39 | 1008.1 |
| 20260505175504 | 28 | 153 | 1.6 | 14.5 | 0.00 | 0.00 | 0.00 | 39 | 1008.1 |
| 20260505175406 | 28 | 190 | 3.2 | 14.5 | 0.00 | 0.00 | 0.00 | 42 | 1008.1 |
| 20260505175305 | 28 | 105 | 3.2 | 14.5 | 0.00 | 0.00 | 0.00 | 45 | 1008.3 |
| 20260505175204 | 27 | 109 | 1.6 | 14.5 | 0.00 | 0.00 | 0.00 | 45 | 1008.3 |
| 20260505175103 | 27 | 121 | 3.2 | 14.5 | 0.00 | 0.00 | 0.00 | 45 | 1008.3 |
| 20260505175002 | 27 | 121 | 3.2 | 14.5 | 0.00 | 0.00 | 0.00 | 45 | 1008.3 |
| 20260505174901 | 27 | 121 | 3.2 | 16.1 | 0.00 | 0.00 | 0.00 | 44 | 1008.3 |
| 20260505174802 | 27 | 116 | 4.8 | 16.1 | 0.00 | 0.00 | 0.00 | 47 | 1008.2 |
| 20260505174720 | 27 | 111 | 4.8 | 16.1 | 0.00 | 0.00 | 0.00 | 46 | 1008.3 |
| 20260505174504 | 27 | 182 | 4.8 | 16.1 | 0.00 | 0.00 | 0.00 | 45 | 1008.4 |
| 20260505174402 | 27 | 194 | 4.8 | 16.1 | 0.00 | 0.00 | 0.00 | 44 | 1008.4 |
| 20260505174302 | 27 | 157 | 4.8 | 16.1 | 0.00 | 0.00 | 0.00 | 43 | 1008.4 |
| 20260505174202 | 27 | 161 | 4.8 | 16.1 | 0.00 | 0.00 | 0.00 | 44 | 1008.5 |
| 20260505174101 | 27 | 148 | 4.8 | 16.1 | 0.00 | 0.00 | 0.00 | 43 | 1008.4 |
| 20260505174001 | 27 | 136 | 3.2 | 16.1 | 0.00 | 0.00 | 0.00 | 43 | 1008.6 |
| 20260505173902 | 27 | 130 | 3.2 | 11.3 | 0.00 | 0.00 | 0.00 | 43 | 1008.5 |
| 20260505173800 | 27 | 215 | 3.2 | 11.3 | 0.00 | 0.00 | 0.00 | 45 | 1008.6 |
| 20260505173700 | 27 | 233 | 3.2 | 11.3 | 0.00 | 0.00 | 0.00 | 43 | 1008.5 |
| 20260505173600 | 27 | 234 | 3.2 | 11.3 | 0.00 | 0.00 | 0.00 | 42 | 1008.6 |
| 20260505173459 | 27 | 225 | 3.2 | 9.7 | 0.00 | 0.00 | 0.00 | 43 | 1008.5 |
| 20260505173400 | 27 | 219 | 3.2 | 9.7 | 0.00 | 0.00 | 0.00 | 45 | 1008.6 |
| 20260505173259 | 27 | 190 | 3.2 | 9.7 | 0.00 | 0.00 | 0.00 | 45 | 1008.5 |
| 20260505173159 | 27 | 190 | 3.2 | 9.7 | 0.00 | 0.00 | 0.00 | 47 | 1008.4 |
| 20260505173058 | 27 | 222 | 3.2 | 9.7 | 0.00 | 0.00 | 0.00 | 46 | 1008.5 |
| 20260505172955 | 27 | 232 | 3.2 | 12.9 | 0.00 | 0.00 | 0.00 | 45 | 1008.6 |
| 20260505172854 | 27 | 236 | 3.2 | 12.9 | 0.00 | 0.00 | 0.00 | 45 | 1008.6 |
| 20260505172755 | 27 | 236 | 3.2 | 14.5 | 0.00 | 0.00 | 0.00 | 44 | 1008.6 |
| 20260505172653 | 27 | 236 | 3.2 | 14.5 | 0.00 | 0.00 | 0.00 | 46 | 1008.7 |
| 20260505172553 | 27 | 184 | 3.2 | 14.5 | 0.00 | 0.00 | 0.00 | 44 | 1008.7 |
| 20260505172455 | 27 | 178 | 3.2 | 14.5 | 0.00 | 0.00 | 0.00 | 45 | 1008.7 |
| 20260505172352 | 27 | 134 | 3.2 | 14.5 | 0.00 | 0.00 | 0.00 | 44 | 1008.8 |
| 20260505172253 | 27 | 109 | 3.2 | 14.5 | 0.00 | 0.00 | 0.00 | 45 | 1008.7 |
| 20260505172153 | 27 | 194 | 3.2 | 14.5 | 0.00 | 0.00 | 0.00 | 44 | 1008.7 |
| 20260505172123 | 27 | 134 | 3.2 | 14.5 | 0.00 | 0.00 | 0.00 | 44 | 1008.7 |
| 20260505171748 | 26 | 250 | 3.2 | 17.7 | 0.00 | 0.00 | 0.00 | 48 | 1008.8 |
| 20260505171649 | 26 | 149 | 3.2 | 17.7 | 0.00 | 0.00 | 0.00 | 48 | 1008.8 |
| 20260505171545 | 26 | 89 | 3.2 | 17.7 | 0.00 | 0.00 | 0.00 | 48 | 1008.7 |
| 20260505171445 | 26 | 219 | 3.2 | 17.7 | 0.00 | 0.00 | 0.00 | 47 | 1008.8 |
| 20260505171400 | 26 | 219 | 3.2 | 17.7 | 0.00 | 0.00 | 0.00 | 47 | 1008.8 |
| 20260505171142 | 26 | 105 | 3.2 | 17.7 | 0.00 | 0.00 | 0.00 | 48 | 1008.9 |
| 20260505171041 | 26 | 105 | 3.2 | 17.7 | 0.00 | 0.00 | 0.00 | 47 | 1008.9 |
| 20260505170941 | 26 | 243 | 4.8 | 17.7 | 0.00 | 0.00 | 0.00 | 46 | 1008.9 |
| 20260505170841 | 26 | 243 | 3.2 | 17.7 | 0.00 | 0.00 | 0.00 | 47 | 1008.8 |
| 20260505170739 | 26 | 238 | 3.2 | 16.1 | 0.00 | 0.00 | 0.00 | 48 | 1008.8 |
| 20260505170638 | 26 | 246 | 3.2 | 16.1 | 0.00 | 0.00 | 0.00 | 46 | 1008.9 |
| 20260505170539 | 26 | 147 | 3.2 | 16.1 | 0.00 | 0.00 | 0.00 | 46 | 1009.0 |
| 20260505170436 | 26 | 186 | 3.2 | 16.1 | 0.00 | 0.00 | 0.00 | 46 | 1009.0 |
| 20260505170335 | 26 | 188 | 3.2 | 16.1 | 0.00 | 0.00 | 0.00 | 46 | 1009.0 |
| 20260505170236 | 26 | 225 | 3.2 | 16.1 | 0.00 | 0.00 | 0.00 | 45 | 1008.9 |
| 20260505170136 | 26 | 225 | 3.2 | 16.1 | 0.00 | 0.00 | 0.00 | 46 | 1008.9 |
| 20260505170036 | 26 | 238 | 1.6 | 16.1 | 0.00 | 0.00 | 0.00 | 47 | 1008.9 |
| 20260505165936 | 26 | 185 | 1.6 | 11.3 | 0.00 | 0.00 | 0.00 | 47 | 1009.0 |
| 20260505165835 | 26 | 213 | 3.2 | 11.3 | 0.00 | 0.00 | 0.00 | 46 | 1009.0 |
| 20260505165736 | 26 | 213 | 3.2 | 11.3 | 0.00 | 0.00 | 0.00 | 46 | 1009.0 |
| 20260505165650 | 26 | 179 | 3.2 | 11.3 | 0.00 | 0.00 | 0.00 | 46 | 1009.0 |
| 20260505165435 | 26 | 228 | 3.2 | 11.3 | 0.00 | 0.00 | 0.00 | 47 | 1009.1 |
| 20260505165335 | 26 | 123 | 3.2 | 12.9 | 0.00 | 0.00 | 0.00 | 49 | 1009.1 |
| 20260505165236 | 26 | 186 | 3.2 | 12.9 | 0.00 | 0.00 | 0.00 | 48 | 1009.0 |
| 20260505165131 | 26 | 157 | 3.2 | 12.9 | 0.00 | 0.00 | 0.00 | 49 | 1009.0 |
| 20260505165031 | 26 | 126 | 3.2 | 12.9 | 0.00 | 0.00 | 0.00 | 49 | 1009.0 |
| 20260505164929 | 26 | 109 | 3.2 | 12.9 | 0.00 | 0.00 | 0.00 | 47 | 1009.1 |
| 20260505164902 | 26 | 192 | 3.2 | 12.9 | 0.00 | 0.00 | 0.00 | 50 | 1009.1 |
| 20260505164527 | 26 | 248 | 3.2 | 16.1 | 0.00 | 0.00 | 0.00 | 48 | 1009.1 |
| 20260505164427 | 26 | 252 | 3.2 | 16.1 | 0.00 | 0.00 | 0.00 | 49 | 1009.2 |
| 20260505164341 | 26 | 138 | 3.2 | 16.1 | 0.00 | 0.00 | 0.00 | 48 | 1009.1 |
| 20260505164123 | 26 | 225 | 3.2 | 16.1 | 0.00 | 0.00 | 0.00 | 51 | 1009.2 |
| 20260505164024 | 26 | 229 | 3.2 | 16.1 | 0.00 | 0.00 | 0.00 | 49 | 1009.2 |
| 20260505163921 | 26 | 229 | 3.2 | 16.1 | 0.00 | 0.00 | 0.00 | 48 | 1009.2 |
| 20260505163822 | 26 | 228 | 3.2 | 16.1 | 0.00 | 0.00 | 0.00 | 48 | 1009.2 |
| 20260505163722 | 26 | 244 | 1.6 | 11.3 | 0.00 | 0.00 | 0.00 | 50 | 1009.3 |
| 20260505163638 | 26 | 244 | 1.6 | 11.3 | 0.00 | 0.00 | 0.00 | 47 | 1009.2 |
| 20260505163424 | 26 | 240 | 1.6 | 8.0 | 0.00 | 0.00 | 0.00 | 49 | 1009.3 |
| 20260505163323 | 26 | 241 | 3.2 | 8.0 | 0.00 | 0.00 | 0.00 | 52 | 1009.3 |
| 20260505163220 | 25 | 241 | 3.2 | 8.0 | 0.00 | 0.00 | 0.00 | 49 | 1009.3 |
| 20260505163120 | 25 | 241 | 3.2 | 8.0 | 0.00 | 0.00 | 0.00 | 49 | 1009.3 |
| 20260505163021 | 25 | 241 | 3.2 | 8.0 | 0.00 | 0.00 | 0.00 | 49 | 1009.4 |
| 20260505162920 | 25 | 241 | 3.2 | 12.9 | 0.00 | 0.00 | 0.00 | 50 | 1009.4 |
| 20260505162820 | 25 | 169 | 3.2 | 12.9 | 0.00 | 0.00 | 0.00 | 50 | 1009.3 |